| time (UTC) | temp C | wind direction | speed KPH | gust KPH | rain 1hr cm | rain 24hr cm | rain mn cm | humidity % | barometer mb |
| 20260901161535 | 26 | 192 | 0.0 | 6.4 | 0.00 | 0.00 | 0.00 | 67 | 1014.7 |
| 20260901161333 | 26 | 190 | 0.0 | 6.4 | 0.00 | 0.00 | 0.00 | 69 | 1014.8 |
| 20260901161239 | 26 | 227 | 0.0 | 6.4 | 0.00 | 0.00 | 0.00 | 72 | 1014.8 |
| 20260901161229 | 26 | 189 | 0.0 | 6.4 | 0.00 | 0.00 | 0.00 | 72 | 1014.7 |
| 20260901160930 | 26 | 227 | 0.0 | 6.4 | 0.00 | 0.00 | 0.00 | 70 | 1014.8 |
| 20260901160730 | 26 | 209 | 0.0 | 6.4 | 0.00 | 0.00 | 0.00 | 71 | 1014.8 |
| 20260901160528 | 26 | 210 | 0.0 | 6.4 | 0.00 | 0.00 | 0.00 | 71 | 1014.8 |
| 20260901160328 | 26 | 221 | 0.0 | 6.4 | 0.00 | 0.00 | 0.00 | 71 | 1014.7 |
| 20260901160240 | 26 | 221 | 0.0 | 6.4 | 0.00 | 0.00 | 0.00 | 71 | 1014.8 |
| 20260901160229 | 26 | 220 | 0.0 | 6.4 | 0.00 | 0.00 | 0.00 | 71 | 1014.7 |
| 20260901155927 | 26 | 224 | 0.0 | 6.4 | 0.00 | 0.00 | 0.00 | 72 | 1014.7 |
| 20260901155836 | 26 | 227 | 0.0 | 6.4 | 0.00 | 0.00 | 0.00 | 71 | 1014.6 |
| 20260901155732 | 26 | 227 | 0.0 | 6.4 | 0.00 | 0.00 | 0.00 | 71 | 1014.6 |
| 20260901155532 | 26 | 227 | 0.0 | 4.8 | 0.00 | 0.00 | 0.00 | 71 | 1014.6 |
| 20260901155523 | 26 | 227 | 0.0 | 4.8 | 0.00 | 0.00 | 0.00 | 76 | 1014.6 |
| 20260901155455 | 26 | 227 | 0.0 | 4.8 | 0.00 | 0.00 | 0.00 | 72 | 1014.6 |
| 20260901155129 | 26 | 227 | 0.0 | 4.8 | 0.00 | 0.00 | 0.00 | 73 | 1014.7 |
| 20260901154929 | 26 | 226 | 0.0 | 4.8 | 0.00 | 0.00 | 0.00 | 73 | 1014.8 |
| 20260901154834 | 26 | 227 | 0.0 | 4.8 | 0.00 | 0.00 | 0.00 | 73 | 1014.7 |
| 20260901154731 | 26 | 227 | 0.0 | 4.8 | 0.00 | 0.00 | 0.00 | 73 | 1014.7 |
| 20260901154557 | 26 | 226 | 0.0 | 3.2 | 0.00 | 0.00 | 0.00 | 75 | 1014.6 |
| 20260901154532 | 26 | 226 | 0.0 | 3.2 | 0.00 | 0.00 | 0.00 | 74 | 1014.7 |
| 20260901154523 | 26 | 227 | 0.0 | 3.2 | 0.00 | 0.00 | 0.00 | 75 | 1014.6 |
| 20260901154130 | 26 | 226 | 0.0 | 3.2 | 0.00 | 0.00 | 0.00 | 73 | 1014.5 |
| 20260901153929 | 26 | 227 | 0.0 | 3.2 | 0.00 | 0.00 | 0.00 | 73 | 1014.5 |
| 20260901153731 | 26 | 227 | 0.0 | 3.2 | 0.00 | 0.00 | 0.00 | 75 | 1014.5 |
| 20260901153532 | 26 | 227 | 0.0 | 3.2 | 0.00 | 0.00 | 0.00 | 76 | 1014.5 |
| 20260901153522 | 25 | 227 | 0.0 | 4.8 | 0.00 | 0.00 | 0.00 | 73 | 1014.6 |
| 20260901153456 | 25 | 227 | 0.0 | 4.8 | 0.00 | 0.00 | 0.00 | 74 | 1014.6 |
| 20260901153129 | 25 | 228 | 0.0 | 4.8 | 0.00 | 0.00 | 0.00 | 74 | 1014.5 |
| 20260901153032 | 25 | 227 | 0.0 | 4.8 | 0.00 | 0.00 | 0.00 | 72 | 1014.6 |
| 20260901152744 | 25 | 227 | 0.0 | 4.8 | 0.00 | 0.00 | 0.00 | 77 | 1014.6 |
| 20260901152529 | 25 | 227 | 0.0 | 6.4 | 0.00 | 0.00 | 0.00 | 74 | 1014.7 |
| 20260901152329 | 25 | 227 | 0.0 | 6.4 | 0.00 | 0.00 | 0.00 | 74 | 1014.7 |
| 20260901152239 | 25 | 227 | 0.0 | 6.4 | 0.00 | 0.00 | 0.00 | 75 | 1014.7 |
| 20260901152229 | 25 | 228 | 0.0 | 6.4 | 0.00 | 0.00 | 0.00 | 75 | 1014.7 |
| 20260901151929 | 25 | 227 | 0.0 | 6.4 | 0.00 | 0.00 | 0.00 | 74 | 1014.7 |
| 20260901151743 | 25 | 227 | 0.0 | 6.4 | 0.00 | 0.00 | 0.00 | 76 | 1014.7 |
| 20260901151632 | 25 | 227 | 0.0 | 4.8 | 0.00 | 0.00 | 0.00 | 74 | 1014.7 |
| 20260901151328 | 25 | 227 | 0.0 | 4.8 | 0.00 | 0.00 | 0.00 | 76 | 1014.8 |
| 20260901151230 | 25 | 228 | 0.0 | 4.8 | 0.00 | 0.00 | 0.00 | 77 | 1014.8 |
| 20260901151131 | 25 | 228 | 0.0 | 4.8 | 0.00 | 0.00 | 0.00 | 76 | 1014.8 |
| 20260901150931 | 25 | 228 | 0.0 | 4.8 | 0.00 | 0.00 | 0.00 | 76 | 1014.6 |
| 20260901150835 | 25 | 227 | 0.0 | 3.2 | 0.00 | 0.00 | 0.00 | 78 | 1014.7 |
| 20260901150730 | 25 | 227 | 0.0 | 3.2 | 0.00 | 0.00 | 0.00 | 78 | 1014.7 |
| 20260901150530 | 25 | 228 | 0.0 | 3.2 | 0.00 | 0.00 | 0.00 | 78 | 1014.7 |
| 20260901150329 | 24 | 226 | 0.0 | 0.0 | 0.00 | 0.00 | 0.00 | 77 | 1014.8 |
| 20260901150240 | 24 | 227 | 0.0 | 0.0 | 0.00 | 0.00 | 0.00 | 79 | 1014.7 |
| 20260901150229 | 24 | 227 | 0.0 | 0.0 | 0.00 | 0.00 | 0.00 | 78 | 1014.8 |
| 20260901145928 | 24 | 227 | 0.0 | 0.0 | 0.00 | 0.00 | 0.00 | 79 | 1014.8 |
| 20260901145731 | 24 | 227 | 0.0 | 0.0 | 0.00 | 0.00 | 0.00 | 78 | 1014.8 |
| 20260901145531 | 24 | 230 | 0.0 | 0.0 | 0.00 | 0.00 | 0.00 | 78 | 1015.0 |
| 20260901145329 | 24 | 228 | 0.0 | 0.0 | 0.00 | 0.00 | 0.00 | 79 | 1015.0 |
| 20260901145229 | 23 | 228 | 0.0 | 0.0 | 0.00 | 0.00 | 0.00 | 80 | 1014.8 |
| 20260901145129 | 23 | 230 | 0.0 | 0.0 | 0.00 | 0.00 | 0.00 | 80 | 1015.1 |
| 20260901144928 | 23 | 228 | 0.0 | 0.0 | 0.00 | 0.00 | 0.00 | 79 | 1015.0 |
| 20260901144730 | 23 | 231 | 0.0 | 0.0 | 0.00 | 0.00 | 0.00 | 79 | 1015.0 |
| 20260901144629 | 23 | 228 | 0.0 | 0.0 | 0.00 | 0.00 | 0.00 | 82 | 1015.0 |
| 20260901144427 | 23 | 230 | 0.0 | 0.0 | 0.00 | 0.00 | 0.00 | 81 | 1015.1 |
| 20260901144228 | 23 | 228 | 0.0 | 0.0 | 0.00 | 0.00 | 0.00 | 81 | 1015.0 |
| 20260901144128 | 23 | 228 | 0.0 | 0.0 | 0.00 | 0.00 | 0.00 | 81 | 1015.1 |
| 20260901143929 | 23 | 230 | 0.0 | 0.0 | 0.00 | 0.00 | 0.00 | 83 | 1015.1 |
| 20260901143731 | 23 | 228 | 0.0 | 0.0 | 0.00 | 0.00 | 0.00 | 84 | 1015.0 |
| 20260901143530 | 23 | 228 | 0.0 | 0.0 | 0.00 | 0.00 | 0.00 | 84 | 1015.0 |
| 20260901143331 | 23 | 228 | 0.0 | 0.0 | 0.00 | 0.00 | 0.00 | 84 | 1015.0 |
| 20260901143238 | 22 | 230 | 0.0 | 0.0 | 0.00 | 0.00 | 0.00 | 85 | 1014.8 |
| 20260901143229 | 23 | 230 | 0.0 | 0.0 | 0.00 | 0.00 | 0.00 | 84 | 1014.8 |
| 20260901143031 | 22 | 228 | 0.0 | 0.0 | 0.00 | 0.00 | 0.00 | 86 | 1015.0 |
| 20260901142730 | 22 | 230 | 0.0 | 0.0 | 0.00 | 0.00 | 0.00 | 86 | 1015.0 |
| 20260901142530 | 22 | 228 | 0.0 | 0.0 | 0.00 | 0.00 | 0.00 | 87 | 1015.0 |
| 20260901142329 | 22 | 230 | 0.0 | 0.0 | 0.00 | 0.00 | 0.00 | 87 | 1015.0 |
| 20260901142230 | 22 | 228 | 0.0 | 0.0 | 0.00 | 0.00 | 0.00 | 88 | 1015.0 |
| 20260901142131 | 22 | 230 | 0.0 | 0.0 | 0.00 | 0.00 | 0.00 | 88 | 1015.1 |
| 20260901141929 | 22 | 231 | 0.0 | 0.0 | 0.00 | 0.00 | 0.00 | 89 | 1015.1 |
| 20260901141837 | 22 | 230 | 0.0 | 0.0 | 0.00 | 0.00 | 0.00 | 90 | 1015.0 |
| 20260901141731 | 22 | 230 | 0.0 | 0.0 | 0.00 | 0.00 | 0.00 | 90 | 1015.0 |
| 20260901141628 | 21 | 237 | 0.0 | 0.0 | 0.00 | 0.00 | 0.00 | 90 | 1015.0 |
| 20260901141329 | 21 | 192 | 0.0 | 0.0 | 0.00 | 0.00 | 0.00 | 91 | 1015.1 |
| 20260901141239 | 21 | 193 | 0.0 | 0.0 | 0.00 | 0.00 | 0.00 | 91 | 1015.1 |
| 20260901141230 | 21 | 190 | 0.0 | 0.0 | 0.00 | 0.00 | 0.00 | 91 | 1015.1 |
| 20260901140929 | 21 | 190 | 0.0 | 0.0 | 0.00 | 0.00 | 0.00 | 92 | 1015.2 |
| 20260901140838 | 21 | 203 | 0.0 | 0.0 | 0.00 | 0.00 | 0.00 | 92 | 1015.2 |
| 20260901140731 | 21 | 203 | 0.0 | 0.0 | 0.00 | 0.00 | 0.00 | 92 | 1015.2 |
| 20260901140528 | 21 | 203 | 0.0 | 0.0 | 0.00 | 0.00 | 0.00 | 93 | 1015.2 |
| 20260901140329 | 21 | 216 | 0.0 | 0.0 | 0.00 | 0.00 | 0.00 | 94 | 1015.2 |
| 20260901140229 | 21 | 216 | 0.0 | 0.0 | 0.00 | 0.00 | 0.00 | 94 | 1015.2 |
| 20260901140130 | 21 | 214 | 0.0 | 0.0 | 0.00 | 0.00 | 0.00 | 94 | 1015.2 |
| 20260901135930 | 21 | 214 | 0.0 | 0.0 | 0.00 | 0.00 | 0.00 | 95 | 1015.2 |
| 20260901135836 | 20 | 216 | 0.0 | 0.0 | 0.00 | 0.00 | 0.00 | 95 | 1015.3 |
| 20260901135731 | 20 | 216 | 0.0 | 0.0 | 0.00 | 0.00 | 0.00 | 95 | 1015.3 |
| 20260901135556 | 20 | 216 | 0.0 | 0.0 | 0.00 | 0.00 | 0.00 | 96 | 1015.3 |
| 20260901135529 | 20 | 214 | 0.0 | 0.0 | 0.00 | 0.00 | 0.00 | 95 | 1015.3 |
| 20260901135516 | 20 | 216 | 0.0 | 0.0 | 0.00 | 0.00 | 0.00 | 96 | 1015.3 |
| 20260901135130 | 20 | 216 | 0.0 | 0.0 | 0.00 | 0.00 | 0.00 | 97 | 1015.2 |
| 20260901134930 | 20 | 216 | 0.0 | 0.0 | 0.00 | 0.00 | 0.00 | 97 | 1015.4 |
| 20260901134731 | 20 | 214 | 0.0 | 0.0 | 0.00 | 0.00 | 0.00 | 97 | 1015.3 |
| 20260901134601 | 20 | 216 | 0.0 | 0.0 | 0.00 | 0.00 | 0.00 | 97 | 1015.3 |
| 20260901134529 | 20 | 214 | 0.0 | 0.0 | 0.00 | 0.00 | 0.00 | 97 | 1015.3 |
| 20260901134520 | 20 | 214 | 0.0 | 0.0 | 0.00 | 0.00 | 0.00 | 97 | 1015.4 |
| 20260901134130 | 20 | 216 | 0.0 | 0.0 | 0.00 | 0.00 | 0.00 | 97 | 1015.3 |
| 20260901134030 | 20 | 214 | 0.0 | 0.0 | 0.00 | 0.00 | 0.00 | 97 | 1015.3 |
| 20260901133730 | 19 | 216 | 0.0 | 0.0 | 0.00 | 0.00 | 0.00 | 97 | 1015.3 |
| 20260901133534 | 19 | 216 | 0.0 | 0.0 | 0.00 | 0.00 | 0.00 | 97 | 1015.4 |
| 20260901133528 | 19 | 214 | 0.0 | 0.0 | 0.00 | 0.00 | 0.00 | 97 | 1015.4 |
| 20260901133501 | 19 | 216 | 0.0 | 0.0 | 0.00 | 0.00 | 0.00 | 97 | 1015.4 |
| 20260901133129 | 19 | 216 | 0.0 | 0.0 | 0.00 | 0.00 | 0.00 | 97 | 1015.4 |
| 20260901132929 | 19 | 216 | 0.0 | 1.6 | 0.00 | 0.00 | 0.00 | 97 | 1015.4 |
| 20260901132731 | 19 | 216 | 0.0 | 1.6 | 0.00 | 0.00 | 0.00 | 97 | 1015.4 |
| 20260901132529 | 19 | 214 | 0.0 | 1.6 | 0.00 | 0.00 | 0.00 | 98 | 1015.4 |
| 20260901132428 | 19 | 216 | 0.0 | 1.6 | 0.00 | 0.00 | 0.00 | 98 | 1015.4 |
| 20260901132228 | 18 | 216 | 0.0 | 1.6 | 0.00 | 0.00 | 0.00 | 97 | 1015.3 |
| 20260901132128 | 18 | 216 | 0.0 | 1.6 | 0.00 | 0.00 | 0.00 | 97 | 1015.4 |
| 20260901132030 | 18 | 214 | 0.0 | 0.0 | 0.00 | 0.00 | 0.00 | 97 | 1015.3 |
| 20260901131731 | 18 | 214 | 0.0 | 0.0 | 0.00 | 0.00 | 0.00 | 97 | 1015.3 |
| 20260901131529 | 18 | 220 | 0.0 | 0.0 | 0.00 | 0.00 | 0.00 | 98 | 1015.2 |
| 20260901131331 | 18 | 220 | 0.0 | 0.0 | 0.00 | 0.00 | 0.00 | 97 | 1015.2 |
| 20260901131230 | 18 | 220 | 0.0 | 0.0 | 0.00 | 0.00 | 0.00 | 97 | 1015.2 |
| 20260901131129 | 18 | 220 | 0.0 | 0.0 | 0.00 | 0.00 | 0.00 | 97 | 1015.2 |
| 20260901131036 | 18 | 220 | 0.0 | 0.0 | 0.00 | 0.00 | 0.00 | 97 | 1015.2 |
| 20260901130730 | 18 | 219 | 0.0 | 0.0 | 0.00 | 0.00 | 0.00 | 97 | 1015.2 |
| 20260901130628 | 18 | 220 | 0.0 | 0.0 | 0.00 | 0.00 | 0.00 | 97 | 1015.1 |
| 20260901130330 | 18 | 219 | 0.0 | 0.0 | 0.00 | 0.00 | 0.00 | 98 | 1015.1 |
| 20260901130243 | 18 | 219 | 0.0 | 0.0 | 0.00 | 0.00 | 0.00 | 97 | 1015.1 |
| 20260901130129 | 18 | 220 | 0.0 | 0.0 | 0.00 | 0.00 | 0.00 | 97 | 1015.1 |
| 20260901125931 | 18 | 219 | 0.0 | 0.0 | 0.00 | 0.00 | 0.00 | 97 | 1015.0 |
| 20260901125733 | 18 | 219 | 0.0 | 0.0 | 0.00 | 0.00 | 0.00 | 98 | 1015.0 |
| 20260901125612 | -17 | 0.0 | 0.0 | 0.00 | 0.00 | 0.00 | |||
| 20260901125507 | -17 | 0.0 | 0.0 | 0.00 | 0.00 | 0.00 | |||
| 20260901125309 | -17 | 0.0 | 0.0 | 0.00 | 0.00 | 0.00 | |||
| 20260901125035 | -17 | 0.0 | 0.0 | 0.00 | 0.00 | 0.00 | |||
| 20260901124934 | -17 | 0.0 | 0.0 | 0.00 | 0.00 | 0.00 | |||
| 20260901124848 | -17 | 0.0 | 0.0 | 0.00 | 0.00 | 0.00 | |||
| 20260901124638 | -17 | 0.0 | 0.0 | 0.00 | 0.00 | 0.00 | |||
| 20260901124548 | -17 | 0.0 | 0.0 | 0.00 | 0.00 | 0.00 | 1014.8 | ||
| 20260901124444 | -17 | 0.0 | 0.0 | 0.00 | 0.00 | 0.00 | 1014.8 | ||
| 20260901124207 | -17 | 0.0 | 0.0 | 0.00 | 0.00 | 0.00 | 1014.8 | ||
| 20260901124110 | -17 | 0.0 | 0.0 | 0.00 | 0.00 | 0.00 | 1014.8 | ||
| 20260901123905 | 17 | 219 | 0.0 | 0.0 | 0.00 | 0.00 | 0.00 | 97 | 1014.8 |
| 20260901123808 | 17 | 219 | 0.0 | 0.0 | 0.00 | 0.00 | 0.00 | 97 | 1014.8 |
| 20260901123617 | 17 | 219 | 0.0 | 0.0 | 0.00 | 0.00 | 0.00 | 97 | 1014.7 |
| 20260901123610 | 17 | 219 | 0.0 | 0.0 | 0.00 | 0.00 | 0.00 | 97 | 1014.8 |
| 20260901123550 | 17 | 219 | 0.0 | 0.0 | 0.00 | 0.00 | 0.00 | 97 | 1014.8 |
| 20260901123158 | 17 | 220 | 0.0 | 0.0 | 0.00 | 0.00 | 0.00 | 97 | 1014.7 |
| 20260901123135 | 17 | 219 | 0.0 | 0.0 | 0.00 | 0.00 | 0.00 | 97 | 1014.7 |
| 20260901123115 | 17 | 220 | 0.0 | 0.0 | 0.00 | 0.00 | 0.00 | 97 | 1014.7 |
| 20260901122737 | 17 | 220 | 0.0 | 0.0 | 0.00 | 0.00 | 0.00 | 97 | 1014.7 |
| 20260901122634 | 16 | 220 | 0.0 | 0.0 | 0.00 | 0.00 | 0.00 | 97 | 1014.7 |
| 20260901122332 | 16 | 220 | 0.0 | 0.0 | 0.00 | 0.00 | 0.00 | 97 | 1014.7 |
| 20260901122135 | 16 | 220 | 0.0 | 0.0 | 0.00 | 0.00 | 0.00 | 97 | 1014.7 |
| 20260901122124 | 16 | 219 | 0.0 | 0.0 | 0.00 | 0.00 | 0.00 | 97 | 1014.7 |
| 20260901122101 | 16 | 220 | 0.0 | 0.0 | 0.00 | 0.00 | 0.00 | 97 | 1014.7 |
| 20260901121736 | 16 | 220 | 0.0 | 0.0 | 0.00 | 0.00 | 0.00 | 97 | 1014.7 |
| 20260901121635 | 16 | 220 | 0.0 | 0.0 | 0.00 | 0.00 | 0.00 | 97 | 1014.6 |
| 20260901121330 | 16 | 220 | 0.0 | 0.0 | 0.00 | 0.00 | 0.00 | 97 | 1014.6 |
| 20260901121236 | 16 | 219 | 0.0 | 0.0 | 0.00 | 0.00 | 0.00 | 97 | 1014.5 |
| 20260901121056 | 16 | 220 | 0.0 | 0.0 | 0.00 | 0.00 | 0.00 | 97 | 1014.5 |
| 20260901121036 | 16 | 220 | 0.0 | 0.0 | 0.00 | 0.00 | 0.00 | 97 | 1014.5 |
| 20260901120736 | 16 | 219 | 0.0 | 0.0 | 0.00 | 0.00 | 0.00 | 97 | 1014.5 |
| 20260901120634 | 16 | 220 | 0.0 | 0.0 | 0.00 | 0.00 | 0.00 | 97 | 1014.6 |
| 20260901120334 | 16 | 220 | 0.0 | 0.0 | 0.00 | 0.00 | 0.00 | 97 | 1014.6 |
| 20260901120301 | 16 | 219 | 0.0 | 0.0 | 0.00 | 0.00 | 0.00 | 97 | 1014.5 |
| 20260901120139 | 16 | 219 | 0.0 | 0.0 | 0.00 | 0.00 | 0.00 | 97 | 1014.4 |
| 20260901120135 | 16 | 221 | 0.0 | 0.0 | 0.00 | 0.00 | 0.00 | 97 | 1014.6 |
| 20260901120052 | 16 | 219 | 0.0 | 0.0 | 0.00 | 0.00 | 0.00 | 97 | 1014.5 |
| 20260901115737 | 16 | 220 | 0.0 | 0.0 | 0.00 | 0.00 | 0.00 | 97 | 1014.5 |
| 20260901115534 | 16 | 219 | 0.0 | 0.0 | 0.00 | 0.00 | 0.00 | 97 | 1014.4 |
| 20260901115336 | 16 | 219 | 0.0 | 0.0 | 0.00 | 0.00 | 0.00 | 97 | 1014.5 |
| 20260901115306 | 16 | 220 | 0.0 | 0.0 | 0.00 | 0.00 | 0.00 | 97 | 1014.4 |
| 20260901115235 | 16 | 220 | 0.0 | 0.0 | 0.00 | 0.00 | 0.00 | 97 | 1014.4 |
| 20260901114939 | 16 | 219 | 0.0 | 0.0 | 0.00 | 0.00 | 0.00 | 97 | 1014.4 |
| 20260901114800 | 16 | 219 | 0.0 | 0.0 | 0.00 | 0.00 | 0.00 | 97 | 1014.3 |
| 20260901114731 | 16 | 220 | 0.0 | 0.0 | 0.00 | 0.00 | 0.00 | 97 | 1014.3 |
| 20260901114644 | 16 | 220 | 0.0 | 0.0 | 0.00 | 0.00 | 0.00 | 97 | 1014.3 |
| 20260901114521 | 16 | 220 | 0.0 | 0.0 | 0.00 | 0.00 | 0.00 | 97 | 1014.3 |
| 20260901114106 | 16 | 220 | 0.0 | 0.0 | 0.00 | 0.00 | 0.00 | 97 | 1014.2 |
| 20260901113906 | 16 | 217 | 0.0 | 0.0 | 0.00 | 0.00 | 0.00 | 97 | 1014.3 |
| 20260901113807 | 16 | 220 | 0.0 | 0.0 | 0.00 | 0.00 | 0.00 | 97 | 1014.2 |
| 20260901113754 | 16 | 219 | 0.0 | 0.0 | 0.00 | 0.00 | 0.00 | 97 | 1014.2 |
| 20260901113540 | 16 | 219 | 0.0 | 0.0 | 0.00 | 0.00 | 0.00 | 97 | 1014.1 |
| 20260901113528 | 16 | 220 | 0.0 | 0.0 | 0.00 | 0.00 | 0.00 | 97 | 1014.1 |
| 20260901113457 | 16 | 220 | 0.0 | 0.0 | 0.00 | 0.00 | 0.00 | 97 | 1014.1 |
| 20260901113103 | 16 | 219 | 0.0 | 0.0 | 0.00 | 0.00 | 0.00 | 97 | 1014.1 |
| 20260901112902 | 16 | 220 | 0.0 | 0.0 | 0.00 | 0.00 | 0.00 | 97 | 1014.2 |
| 20260901112738 | 16 | 220 | 0.0 | 0.0 | 0.00 | 0.00 | 0.00 | 97 | 1014.1 |
| 20260901112702 | 16 | 219 | 0.0 | 0.0 | 0.00 | 0.00 | 0.00 | 97 | 1014.1 |
| 20260901112542 | 16 | 220 | 0.0 | 0.0 | 0.00 | 0.00 | 0.00 | 97 | 1014.0 |
| 20260901112529 | 16 | 220 | 0.0 | 0.0 | 0.00 | 0.00 | 0.00 | 96 | 1014.0 |
| 20260901112458 | 16 | 219 | 0.0 | 0.0 | 0.00 | 0.00 | 0.00 | 97 | 1014.0 |
| 20260901112205 | 16 | 220 | 0.0 | 0.0 | 0.00 | 0.00 | 0.00 | 97 | 1014.0 |
| 20260901111901 | 16 | 221 | 0.0 | 0.0 | 0.00 | 0.00 | 0.00 | 96 | 1013.9 |
| 20260901111803 | 16 | 219 | 0.0 | 0.0 | 0.00 | 0.00 | 0.00 | 96 | 1013.8 |
| 20260901111736 | 16 | 220 | 0.0 | 0.0 | 0.00 | 0.00 | 0.00 | 96 | 1013.9 |
| 20260901111444 | 16 | 220 | 0.0 | 0.0 | 0.00 | 0.00 | 0.00 | 96 | 1013.8 |
| 20260901111237 | 16 | 220 | 0.0 | 0.0 | 0.00 | 0.00 | 0.00 | 96 | 1013.8 |
| 20260901111040 | 16 | 219 | 0.0 | 0.0 | 0.00 | 0.00 | 0.00 | 97 | 1013.8 |
| 20260901110838 | 16 | 220 | 0.0 | 0.0 | 0.00 | 0.00 | 0.00 | 96 | 1013.7 |
| 20260901110747 | 16 | 220 | 0.0 | 0.0 | 0.00 | 0.00 | 0.00 | 96 | 1013.8 |
| 20260901110735 | 16 | 219 | 0.0 | 0.0 | 0.00 | 0.00 | 0.00 | 96 | 1013.7 |
| 20260901110440 | 16 | 220 | 0.0 | 0.0 | 0.00 | 0.00 | 0.00 | 97 | 1013.8 |
| 20260901110339 | 16 | 220 | 0.0 | 0.0 | 0.00 | 0.00 | 0.00 | 97 | 1013.8 |
| 20260901110235 | 16 | 219 | 0.0 | 0.0 | 0.00 | 0.00 | 0.00 | 97 | 1013.8 |
| 20260901110036 | 16 | 220 | 0.0 | 0.0 | 0.00 | 0.00 | 0.00 | 96 | 1013.7 |
| 20260901105837 | 16 | 220 | 0.0 | 0.0 | 0.00 | 0.00 | 0.00 | 96 | 1013.7 |
| 20260901105733 | 16 | 219 | 0.0 | 0.0 | 0.00 | 0.00 | 0.00 | 97 | 1013.8 |
| 20260901105638 | 16 | 219 | 0.0 | 0.0 | 0.00 | 0.00 | 0.00 | 97 | 1013.8 |
| 20260901105435 | 16 | 220 | 0.0 | 0.0 | 0.00 | 0.00 | 0.00 | 96 | 1013.8 |
| 20260901105343 | 16 | 219 | 0.0 | 0.0 | 0.00 | 0.00 | 0.00 | 96 | 1013.8 |
| 20260901105235 | 16 | 219 | 0.0 | 0.0 | 0.00 | 0.00 | 0.00 | 96 | 1013.8 |
| 20260901105036 | 16 | 219 | 0.0 | 0.0 | 0.00 | 0.00 | 0.00 | 96 | 1013.8 |
| 20260901104835 | 16 | 219 | 0.0 | 0.0 | 0.00 | 0.00 | 0.00 | 97 | 1013.8 |
| 20260901104735 | 16 | 219 | 0.0 | 0.0 | 0.00 | 0.00 | 0.00 | 97 | 1013.8 |
| 20260901104639 | 16 | 220 | 0.0 | 0.0 | 0.00 | 0.00 | 0.00 | 97 | 1013.7 |
| 20260901104635 | 16 | 219 | 0.0 | 0.0 | 0.00 | 0.00 | 0.00 | 97 | 1013.8 |
| 20260901104236 | 16 | 220 | 0.0 | 0.0 | 0.00 | 0.00 | 0.00 | 96 | 1013.8 |
| 20260901104214 | 16 | 220 | 0.0 | 0.0 | 0.00 | 0.00 | 0.00 | 96 | 1013.7 |
| 20260901104035 | 16 | 220 | 0.0 | 0.0 | 0.00 | 0.00 | 0.00 | 96 | 1013.7 |
| 20260901103838 | 16 | 220 | 0.0 | 0.0 | 0.00 | 0.00 | 0.00 | 96 | 1013.8 |
| 20260901103704 | 16 | 220 | 0.0 | 0.0 | 0.00 | 0.00 | 0.00 | 96 | 1013.9 |
| 20260901103635 | 16 | 219 | 0.0 | 0.0 | 0.00 | 0.00 | 0.00 | 96 | 1013.9 |
| 20260901103435 | 16 | 220 | 0.0 | 0.0 | 0.00 | 0.00 | 0.00 | 96 | 1013.7 |
| 20260901103240 | 16 | 220 | 0.0 | 0.0 | 0.00 | 0.00 | 0.00 | 97 | 1013.7 |
| 20260901103235 | 16 | 220 | 0.0 | 0.0 | 0.00 | 0.00 | 0.00 | 97 | 1013.7 |
| 20260901103205 | 16 | 220 | 0.0 | 0.0 | 0.00 | 0.00 | 0.00 | 97 | 1013.7 |
| 20260901102954 | 16 | 220 | 0.0 | 0.0 | 0.00 | 0.00 | 0.00 | 97 | 1013.7 |
| 20260901102940 | 16 | 217 | 0.0 | 0.0 | 0.00 | 0.00 | 0.00 | 97 | 1013.7 |
| 20260901102631 | 16 | 220 | 0.0 | 0.0 | 0.00 | 0.00 | 0.00 | 97 | 1013.7 |
| 20260901102431 | 16 | 217 | 0.0 | 0.0 | 0.00 | 0.00 | 0.00 | 96 | 1013.7 |
| 20260901102231 | 16 | 220 | 0.0 | 0.0 | 0.00 | 0.00 | 0.00 | 96 | 1013.8 |
| 20260901102204 | 16 | 221 | 0.0 | 0.0 | 0.00 | 0.00 | 0.00 | 96 | 1013.8 |
| 20260901102037 | 16 | 219 | 0.0 | 0.0 | 0.00 | 0.00 | 0.00 | 96 | 1013.7 |
| 20260901102032 | 16 | 219 | 0.0 | 0.0 | 0.00 | 0.00 | 0.00 | 96 | 1013.8 |
| 20260901101958 | 16 | 219 | 0.0 | 0.0 | 0.00 | 0.00 | 0.00 | 96 | 1013.6 |
| 20260901101953 | 16 | 220 | 0.0 | 0.0 | 0.00 | 0.00 | 0.00 | 96 | 1013.6 |
| 20260901101431 | 16 | 220 | 0.0 | 0.0 | 0.00 | 0.00 | 0.00 | 96 | 1013.7 |
| 20260901101232 | 16 | 220 | 0.0 | 0.0 | 0.00 | 0.00 | 0.00 | 96 | 1013.6 |
| 20260901101205 | 16 | 220 | 0.0 | 0.0 | 0.00 | 0.00 | 0.00 | 96 | 1013.7 |
| 20260901101030 | 16 | 219 | 0.0 | 0.0 | 0.00 | 0.00 | 0.00 | 96 | 1013.5 |
| 20260901100957 | 16 | 219 | 0.0 | 0.0 | 0.00 | 0.00 | 0.00 | 96 | 1013.5 |
| 20260901100939 | 16 | 220 | 0.0 | 0.0 | 0.00 | 0.00 | 0.00 | 96 | 1013.6 |
| 20260901100632 | 16 | 220 | 0.0 | 0.0 | 0.00 | 0.00 | 0.00 | 96 | 1013.5 |
| 20260901100431 | 16 | 220 | 0.0 | 0.0 | 0.00 | 0.00 | 0.00 | 96 | 1013.6 |
| 20260901100203 | 16 | 220 | 0.0 | 0.0 | 0.00 | 0.00 | 0.00 | 96 | 1013.6 |
| 20260901100031 | 16 | 219 | 0.0 | 0.0 | 0.00 | 0.00 | 0.00 | 96 | 1013.5 |
| 20260901095830 | 17 | 220 | 0.0 | 0.0 | 0.00 | 0.00 | 0.00 | 96 | 1013.5 |
| 20260901095728 | 17 | 220 | 0.0 | 0.0 | 0.00 | 0.00 | 0.00 | 96 | 1013.6 |
| 20260901095702 | 17 | 220 | 0.0 | 0.0 | 0.00 | 0.00 | 0.00 | 96 | 1013.5 |
| 20260901095540 | 17 | 220 | 0.0 | 0.0 | 0.00 | 0.00 | 0.00 | 96 | 1013.6 |
| 20260901095234 | 17 | 220 | 0.0 | 0.0 | 0.00 | 0.00 | 0.00 | 96 | 1013.6 |
| 20260901095203 | 17 | 219 | 0.0 | 0.0 | 0.00 | 0.00 | 0.00 | 96 | 1013.6 |
| 20260901095034 | 17 | 219 | 0.0 | 0.0 | 0.00 | 0.00 | 0.00 | 96 | 1013.5 |
| 20260901094834 | 17 | 219 | 0.0 | 0.0 | 0.00 | 0.00 | 0.00 | 96 | 1013.5 |
| 20260901094704 | 17 | 220 | 0.0 | 0.0 | 0.00 | 0.00 | 0.00 | 96 | 1013.5 |
| 20260901094635 | 17 | 220 | 0.0 | 0.0 | 0.00 | 0.00 | 0.00 | 96 | 1013.5 |
| 20260901094434 | 17 | 220 | 0.0 | 0.0 | 0.00 | 0.00 | 0.00 | 96 | 1013.6 |
| 20260901094335 | 17 | 220 | 0.0 | 0.0 | 0.00 | 0.00 | 0.00 | 96 | 1013.6 |
| 20260901094204 | 17 | 220 | 0.0 | 0.0 | 0.00 | 0.00 | 0.00 | 96 | 1013.6 |
| 20260901094136 | 17 | 220 | 0.0 | 0.0 | 0.00 | 0.00 | 0.00 | 96 | 1013.6 |
| 20260901093835 | 17 | 220 | 0.0 | 0.0 | 0.00 | 0.00 | 0.00 | 96 | 1013.5 |
| 20260901093651 | 17 | 219 | 0.0 | 0.0 | 0.00 | 0.00 | 0.00 | 96 | 1013.6 |
| 20260901093633 | 17 | 220 | 0.0 | 0.0 | 0.00 | 0.00 | 0.00 | 96 | 1013.6 |
| 20260901093433 | 17 | 220 | 0.0 | 0.0 | 0.00 | 0.00 | 0.00 | 96 | 1013.6 |
| 20260901093237 | 17 | 219 | 0.0 | 0.0 | 0.00 | 0.00 | 0.00 | 96 | 1013.6 |
| 20260901093151 | 17 | 219 | 0.0 | 0.0 | 0.00 | 0.00 | 0.00 | 96 | 1013.6 |
| 20260901093034 | 17 | 220 | 0.0 | 0.0 | 0.00 | 0.00 | 0.00 | 96 | 1013.6 |
| 20260901092832 | 17 | 220 | 0.0 | 0.0 | 0.00 | 0.00 | 0.00 | 96 | 1013.6 |
| 20260901092632 | 17 | 219 | 0.0 | 0.0 | 0.00 | 0.00 | 0.00 | 96 | 1013.6 |
| 20260901092432 | 17 | 219 | 0.0 | 0.0 | 0.00 | 0.00 | 0.00 | 96 | 1013.5 |
| 20260901092231 | 16 | 221 | 0.0 | 0.0 | 0.00 | 0.00 | 0.00 | 96 | 1013.5 |
| 20260901092149 | 16 | 220 | 0.0 | 0.0 | 0.00 | 0.00 | 0.00 | 96 | 1013.5 |
| 20260901092031 | 16 | 220 | 0.0 | 0.0 | 0.00 | 0.00 | 0.00 | 96 | 1013.5 |
| 20260901091926 | 16 | 220 | 0.0 | 0.0 | 0.00 | 0.00 | 0.00 | 96 | 1013.5 |
| 20260901091632 | 16 | 219 | 0.0 | 0.0 | 0.00 | 0.00 | 0.00 | 96 | 1013.5 |
| 20260901091535 | 16 | 220 | 0.0 | 0.0 | 0.00 | 0.00 | 0.00 | 96 | 1013.5 |
| 20260901091440 | 16 | 219 | 0.0 | 0.0 | 0.00 | 0.00 | 0.00 | 96 | 1013.4 |
| 20260901091412 | 16 | 219 | 0.0 | 0.0 | 0.00 | 0.00 | 0.00 | 96 | 1013.4 |
| 20260901091032 | 16 | 220 | 0.0 | 0.0 | 0.00 | 0.00 | 0.00 | 96 | 1013.5 |
| 20260901090832 | 16 | 220 | 0.0 | 0.0 | 0.00 | 0.00 | 0.00 | 96 | 1013.4 |
| 20260901090632 | 16 | 220 | 0.0 | 0.0 | 0.00 | 0.00 | 0.00 | 96 | 1013.4 |
| 20260901090529 | 16 | 220 | 0.0 | 0.0 | 0.00 | 0.00 | 0.00 | 96 | 1013.5 |
| 20260901090231 | 16 | 219 | 0.0 | 0.0 | 0.00 | 0.00 | 0.00 | 96 | 1013.5 |
| 20260901090142 | 16 | 219 | 0.0 | 0.0 | 0.00 | 0.00 | 0.00 | 96 | 1013.5 |
| 20260901090128 | 16 | 220 | 0.0 | 0.0 | 0.00 | 0.00 | 0.00 | 96 | 1013.5 |
| 20260901085831 | 16 | 219 | 0.0 | 0.0 | 0.00 | 0.00 | 0.00 | 96 | 1013.6 |
| 20260901085643 | 17 | 220 | 0.0 | 0.0 | 0.00 | 0.00 | 0.00 | 96 | 1013.6 |
| 20260901085621 | 17 | 219 | 0.0 | 0.0 | 0.00 | 0.00 | 0.00 | 96 | 1013.7 |
| 20260901085419 | 17 | 219 | 0.0 | 0.0 | 0.00 | 0.00 | 0.00 | 96 | 1013.6 |
| 20260901085220 | 16 | 219 | 0.0 | 0.0 | 0.00 | 0.00 | 0.00 | 96 | 1013.5 |
| 20260901085141 | 16 | 219 | 0.0 | 0.0 | 0.00 | 0.00 | 0.00 | 96 | 1013.5 |
| 20260901085113 | 16 | 219 | 0.0 | 0.0 | 0.00 | 0.00 | 0.00 | 96 | 1013.6 |
| 20260901084815 | 16 | 220 | 0.0 | 0.0 | 0.00 | 0.00 | 0.00 | 96 | 1013.6 |
| 20260901084641 | 17 | 220 | 0.0 | 0.0 | 0.00 | 0.00 | 0.00 | 96 | 1013.6 |
| 20260901084617 | 17 | 219 | 0.0 | 0.0 | 0.00 | 0.00 | 0.00 | 96 | 1013.6 |
| 20260901084516 | 16 | 221 | 0.0 | 0.0 | 0.00 | 0.00 | 0.00 | 96 | 1013.6 |
| 20260901084216 | 17 | 219 | 0.0 | 0.0 | 0.00 | 0.00 | 0.00 | 96 | 1013.6 |
| 20260901084140 | 17 | 220 | 0.0 | 0.0 | 0.00 | 0.00 | 0.00 | 96 | 1013.6 |
| 20260901084014 | 17 | 217 | 0.0 | 0.0 | 0.00 | 0.00 | 0.00 | 96 | 1013.6 |
| 20260901083815 | 17 | 221 | 0.0 | 0.0 | 0.00 | 0.00 | 0.00 | 96 | 1013.5 |
| 20260901083637 | 17 | 217 | 0.0 | 0.0 | 0.00 | 0.00 | 0.00 | 96 | 1013.7 |
| 20260901083611 | 17 | 219 | 0.0 | 0.0 | 0.00 | 0.00 | 0.00 | 96 | 1013.6 |
| 20260901083508 | 17 | 219 | 0.0 | 0.0 | 0.00 | 0.00 | 0.00 | 96 | 1013.5 |
| 20260901083210 | 17 | 219 | 0.0 | 0.0 | 0.00 | 0.00 | 0.00 | 96 | 1013.6 |
| 20260901083138 | 17 | 220 | 0.0 | 0.0 | 0.00 | 0.00 | 0.00 | 96 | 1013.6 |
| 20260901083102 | 17 | 221 | 0.0 | 0.0 | 0.00 | 0.00 | 0.00 | 96 | 1013.5 |
| 20260901082934 | 17 | 220 | 0.0 | 0.0 | 0.00 | 0.00 | 0.00 | 96 | 1013.5 |
| 20260901082914 | 17 | 219 | 0.0 | 0.0 | 0.00 | 0.00 | 0.00 | 96 | 1013.5 |
| 20260901082605 | 17 | 219 | 0.0 | 0.0 | 0.00 | 0.00 | 0.00 | 96 | 1013.5 |
| 20260901082407 | 17 | 220 | 0.0 | 0.0 | 0.00 | 0.00 | 0.00 | 96 | 1013.5 |
| 20260901082205 | 17 | 220 | 0.0 | 0.0 | 0.00 | 0.00 | 0.00 | 96 | 1013.5 |
| 20260901082136 | 17 | 219 | 0.0 | 0.0 | 0.00 | 0.00 | 0.00 | 96 | 1013.5 |
| 20260901082105 | 17 | 220 | 0.0 | 0.0 | 0.00 | 0.00 | 0.00 | 96 | 1013.6 |
| 20260901081806 | 17 | 220 | 0.0 | 0.0 | 0.00 | 0.00 | 0.00 | 96 | 1013.6 |
| 20260901081708 | 17 | 219 | 0.0 | 0.0 | 0.00 | 0.00 | 0.00 | 96 | 1013.6 |
| 20260901081634 | 17 | 219 | 0.0 | 0.0 | 0.00 | 0.00 | 0.00 | 96 | 1013.6 |
| 20260901081335 | 17 | 220 | 0.0 | 0.0 | 0.00 | 0.00 | 0.00 | 96 | 1013.6 |
| 20260901081134 | 17 | 220 | 0.0 | 0.0 | 0.00 | 0.00 | 0.00 | 96 | 1013.6 |
| 20260901080935 | 17 | 219 | 0.0 | 0.0 | 0.00 | 0.00 | 0.00 | 96 | 1013.5 |
| 20260901080737 | 17 | 219 | 0.0 | 0.0 | 0.00 | 0.00 | 0.00 | 96 | 1013.4 |
| 20260901080633 | 17 | 220 | 0.0 | 0.0 | 0.00 | 0.00 | 0.00 | 96 | 1013.5 |
| 20260901080533 | 17 | 221 | 0.0 | 0.0 | 0.00 | 0.00 | 0.00 | 96 | 1013.5 |
| 20260901080333 | 17 | 220 | 0.0 | 0.0 | 0.00 | 0.00 | 0.00 | 95 | 1013.4 |
| 20260901080245 | 17 | 219 | 0.0 | 0.0 | 0.00 | 0.00 | 0.00 | 95 | 1013.4 |
| 20260901080139 | 17 | 219 | 0.0 | 0.0 | 0.00 | 0.00 | 0.00 | 95 | 1013.4 |
| 20260901080002 | -17 | 0.0 | 0.0 | 0.00 | 0.00 | 0.00 | |||
| 20260901075903 | -17 | 0.0 | 0.0 | 0.00 | 0.00 | 0.00 | |||
| 20260901075732 | -17 | 0.0 | 0.0 | 0.00 | 0.00 | 0.00 | |||
| 20260901075431 | -17 | 0.0 | 0.0 | 0.00 | 0.00 | 0.00 | |||
| 20260901075231 | -17 | 0.0 | 0.0 | 0.00 | 0.00 | 0.00 | |||
| 20260901075032 | -17 | 0.0 | 0.0 | 0.00 | 0.00 | 0.00 | |||
| 20260901074933 | -17 | 0.0 | 0.0 | 0.00 | 0.00 | 0.00 | |||
| 20260901074804 | -17 | 0.0 | 0.0 | 0.00 | 0.00 | 0.00 | 1013.4 | ||
| 20260901074707 | -17 | 0.0 | 0.0 | 0.00 | 0.00 | 0.00 | 1013.4 | ||
| 20260901074435 | -17 | 0.0 | 0.0 | 0.00 | 0.00 | 0.00 | 1013.4 | ||
| 20260901074403 | -17 | 221 | 0.0 | 0.0 | 0.00 | 0.00 | 0.00 | 1013.4 | |
| 20260901074234 | 17 | 221 | 0.0 | 0.0 | 0.00 | 0.00 | 0.00 | 95 | 1013.4 |
| 20260901073922 | 17 | 221 | 0.0 | 0.0 | 0.00 | 0.00 | 0.00 | 95 | 1013.4 |
| 20260901073722 | 17 | 221 | 0.0 | 0.0 | 0.00 | 0.00 | 0.00 | 95 | 1013.5 |
| 20260901073712 | 17 | 221 | 0.0 | 0.0 | 0.00 | 0.00 | 0.00 | 95 | 1013.5 |
| 20260901073658 | 17 | 221 | 0.0 | 0.0 | 0.00 | 0.00 | 0.00 | 95 | 1013.5 |
| 20260901073319 | 17 | 220 | 0.0 | 0.0 | 0.00 | 0.00 | 0.00 | 95 | 1013.6 |
| 20260901073212 | 17 | 219 | 0.0 | 0.0 | 0.00 | 0.00 | 0.00 | 95 | 1013.5 |
| 20260901072924 | 17 | 220 | 0.0 | 0.0 | 0.00 | 0.00 | 0.00 | 95 | 1013.5 |
| 20260901072915 | 17 | 220 | 0.0 | 0.0 | 0.00 | 0.00 | 0.00 | 95 | 1013.6 |
| 20260901072816 | 17 | 220 | 0.0 | 0.0 | 0.00 | 0.00 | 0.00 | 95 | 1013.7 |
| 20260901072721 | 17 | 219 | 0.0 | 0.0 | 0.00 | 0.00 | 0.00 | 95 | 1013.6 |
| 20260901072655 | 17 | 219 | 0.0 | 0.0 | 0.00 | 0.00 | 0.00 | 95 | 1013.6 |
| 20260901072312 | 17 | 219 | 0.0 | 0.0 | 0.00 | 0.00 | 0.00 | 95 | 1013.7 |
| 20260901072103 | 17 | 220 | 0.0 | 0.0 | 0.00 | 0.00 | 0.00 | 95 | 1013.7 |
| 20260901071923 | 17 | 220 | 0.0 | 0.0 | 0.00 | 0.00 | 0.00 | 95 | 1013.7 |
| 20260901071903 | 17 | 220 | 0.0 | 0.0 | 0.00 | 0.00 | 0.00 | 95 | 1013.8 |
| 20260901071720 | 17 | 217 | 0.0 | 0.0 | 0.00 | 0.00 | 0.00 | 95 | 1013.7 |
| 20260901071713 | 17 | 221 | 0.0 | 0.0 | 0.00 | 0.00 | 0.00 | 95 | 1013.7 |
| 20260901071645 | 17 | 221 | 0.0 | 0.0 | 0.00 | 0.00 | 0.00 | 95 | 1013.7 |
| 20260901071405 | 17 | 220 | 0.0 | 0.0 | 0.00 | 0.00 | 0.00 | 95 | 1013.8 |
| 20260901071159 | 17 | 220 | 0.0 | 0.0 | 0.00 | 0.00 | 0.00 | 95 | 1013.8 |
| 20260901070923 | 17 | 220 | 0.0 | 0.0 | 0.00 | 0.00 | 0.00 | 95 | 1013.9 |
| 20260901070904 | 17 | 220 | 0.0 | 0.0 | 0.00 | 0.00 | 0.00 | 95 | 1013.8 |
| 20260901070703 | 17 | 220 | 0.0 | 0.0 | 0.00 | 0.00 | 0.00 | 95 | 1013.9 |
| 20260901070504 | 17 | 220 | 0.0 | 0.0 | 0.00 | 0.00 | 0.00 | 95 | 1013.9 |
| 20260901070416 | 17 | 220 | 0.0 | 0.0 | 0.00 | 0.00 | 0.00 | 95 | 1013.9 |
| 20260901070303 | 17 | 219 | 0.0 | 0.0 | 0.00 | 0.00 | 0.00 | 95 | 1013.9 |
| 20260901070218 | 17 | 220 | 0.0 | 0.0 | 0.00 | 0.00 | 0.00 | 95 | 1014.0 |
| 20260901070211 | 17 | 220 | 0.0 | 0.0 | 0.00 | 0.00 | 0.00 | 95 | 1014.0 |
| 20260901070156 | 17 | 220 | 0.0 | 0.0 | 0.00 | 0.00 | 0.00 | 95 | 1013.9 |
| 20260901065801 | 17 | 220 | 0.0 | 0.0 | 0.00 | 0.00 | 0.00 | 95 | 1014.0 |
| 20260901065500 | 17 | 219 | 0.0 | 0.0 | 0.00 | 0.00 | 0.00 | 95 | 1013.9 |
| 20260901065414 | 17 | 220 | 0.0 | 0.0 | 0.00 | 0.00 | 0.00 | 95 | 1013.9 |
| 20260901065259 | 17 | 220 | 0.0 | 0.0 | 0.00 | 0.00 | 0.00 | 95 | 1013.9 |
| 20260901065207 | 17 | 220 | 0.0 | 0.0 | 0.00 | 0.00 | 0.00 | 95 | 1013.9 |
| 20260901065148 | 17 | 220 | 0.0 | 0.0 | 0.00 | 0.00 | 0.00 | 95 | 1014.0 |
| 20260901064858 | 17 | 219 | 0.0 | 0.0 | 0.00 | 0.00 | 0.00 | 95 | 1013.9 |
| 20260901064651 | 17 | 219 | 0.0 | 0.0 | 0.00 | 0.00 | 0.00 | 95 | 1013.9 |
| 20260901064450 | 17 | 219 | 0.0 | 0.0 | 0.00 | 0.00 | 0.00 | 95 | 1013.9 |
| 20260901064411 | 17 | 220 | 0.0 | 0.0 | 0.00 | 0.00 | 0.00 | 95 | 1013.9 |
| 20260901064253 | 17 | 220 | 0.0 | 0.0 | 0.00 | 0.00 | 0.00 | 95 | 1014.0 |
| 20260901064246 | 18 | 219 | 0.0 | 0.0 | 0.00 | 0.00 | 0.00 | 95 | 1014.1 |
| 20260901064204 | 18 | 219 | 0.0 | 0.0 | 0.00 | 0.00 | 0.00 | 95 | 1014.0 |
| 20260901063848 | 18 | 221 | 0.0 | 0.0 | 0.00 | 0.00 | 0.00 | 95 | 1014.0 |
| 20260901063648 | 18 | 219 | 0.0 | 0.0 | 0.00 | 0.00 | 0.00 | 95 | 1014.0 |
| 20260901063546 | 18 | 220 | 0.0 | 0.0 | 0.00 | 0.00 | 0.00 | 95 | 1014.0 |
| 20260901063409 | 18 | 219 | 0.0 | 0.0 | 0.00 | 0.00 | 0.00 | 94 | 1014.0 |
| 20260901063247 | 18 | 219 | 0.0 | 0.0 | 0.00 | 0.00 | 0.00 | 95 | 1014.1 |
| 20260901063203 | 18 | 219 | 0.0 | 0.0 | 0.00 | 0.00 | 0.00 | 95 | 1014.1 |
| 20260901063144 | 18 | 219 | 0.0 | 0.0 | 0.00 | 0.00 | 0.00 | 95 | 1014.1 |
| 20260901062846 | 18 | 220 | 0.0 | 0.0 | 0.00 | 0.00 | 0.00 | 95 | 1014.1 |
| 20260901062740 | 18 | 220 | 0.0 | 0.0 | 0.00 | 0.00 | 0.00 | 95 | 1014.1 |
| 20260901062443 | 18 | 220 | 0.0 | 0.0 | 0.00 | 0.00 | 0.00 | 95 | 1014.1 |
| 20260901062409 | 18 | 220 | 0.0 | 0.0 | 0.00 | 0.00 | 0.00 | 95 | 1014.0 |
| 20260901062248 | 18 | 220 | 0.0 | 0.0 | 0.00 | 0.00 | 0.00 | 95 | 1014.1 |
| 20260901062243 | 18 | 219 | 0.0 | 0.0 | 0.00 | 0.00 | 0.00 | 95 | 1014.1 |
| 20260901062154 | 18 | 220 | 0.0 | 0.0 | 0.00 | 0.00 | 0.00 | 95 | 1014.2 |
| 20260901061839 | 18 | 220 | 0.0 | 0.0 | 0.00 | 0.00 | 0.00 | 95 | 1014.2 |
| 20260901061639 | 18 | 220 | 0.0 | 0.0 | 0.00 | 0.00 | 0.00 | 94 | 1014.1 |
| 20260901061406 | 18 | 220 | 0.0 | 0.0 | 0.00 | 0.00 | 0.00 | 94 | 1014.1 |
| 20260901061332 | 18 | 220 | 0.0 | 0.0 | 0.00 | 0.00 | 0.00 | 94 | 1014.1 |
| 20260901061203 | 18 | 219 | 0.0 | 0.0 | 0.00 | 0.00 | 0.00 | 94 | 1014.0 |
| 20260901061143 | 18 | 219 | 0.0 | 0.0 | 0.00 | 0.00 | 0.00 | 94 | 1014.0 |
| 20260901060831 | 18 | 220 | 0.0 | 0.0 | 0.00 | 0.00 | 0.00 | 95 | 1014.0 |
| 20260901060633 | 18 | 219 | 0.0 | 0.0 | 0.00 | 0.00 | 0.00 | 95 | 1014.0 |
| 20260901060432 | 18 | 219 | 0.0 | 0.0 | 0.00 | 0.00 | 0.00 | 95 | 1014.1 |
| 20260901060403 | 18 | 220 | 0.0 | 0.0 | 0.00 | 0.00 | 0.00 | 95 | 1014.0 |
| 20260901060236 | 18 | 220 | 0.0 | 0.0 | 0.00 | 0.00 | 0.00 | 94 | 1014.0 |
| 20260901060223 | 18 | 219 | 0.0 | 0.0 | 0.00 | 0.00 | 0.00 | 95 | 1014.0 |
| 20260901060154 | 18 | 219 | 0.0 | 0.0 | 0.00 | 0.00 | 0.00 | 94 | 1013.9 |
| 20260901055823 | 18 | 220 | 0.0 | 0.0 | 0.00 | 0.00 | 0.00 | 94 | 1013.9 |
| 20260901055603 | 18 | 221 | 0.0 | 0.0 | 0.00 | 0.00 | 0.00 | 94 | 1013.9 |
| 20260901055514 | 18 | 220 | 0.0 | 0.0 | 0.00 | 0.00 | 0.00 | 94 | 1013.9 |
| 20260901055408 | 18 | 220 | 0.0 | 0.0 | 0.00 | 0.00 | 0.00 | 94 | 1013.9 |
| 20260901055206 | 18 | 219 | 0.0 | 0.0 | 0.00 | 0.00 | 0.00 | 94 | 1013.9 |
| 20260901055006 | 18 | 220 | 0.0 | 0.0 | 0.00 | 0.00 | 0.00 | 94 | 1013.9 |
| 20260901054909 | 18 | 220 | 0.0 | 0.0 | 0.00 | 0.00 | 0.00 | 94 | 1014.0 |
| 20260901054746 | 18 | 220 | 0.0 | 0.0 | 0.00 | 0.00 | 0.00 | 94 | 1013.9 |
| 20260901054642 | 18 | 219 | 0.0 | 0.0 | 0.00 | 0.00 | 0.00 | 94 | 1013.9 |
| 20260901054333 | 18 | 220 | 0.0 | 0.0 | 0.00 | 0.00 | 0.00 | 94 | 1013.9 |
| 20260901054143 | 18 | 219 | 0.0 | 0.0 | 0.00 | 0.00 | 0.00 | 94 | 1013.9 |
| 20260901054045 | 18 | 220 | 0.0 | 0.0 | 0.00 | 0.00 | 0.00 | 94 | 1013.8 |
| 20260901053831 | 18 | 220 | 0.0 | 0.0 | 0.00 | 0.00 | 0.00 | 94 | 1013.8 |
| 20260901053739 | 18 | 219 | 0.0 | 0.0 | 0.00 | 0.00 | 0.00 | 94 | 1013.8 |
| 20260901053539 | 18 | 220 | 0.0 | 0.0 | 0.00 | 0.00 | 0.00 | 94 | 1013.8 |
| 20260901053341 | 18 | 221 | 0.0 | 0.0 | 0.00 | 0.00 | 0.00 | 94 | 1013.8 |
| 20260901053330 | 18 | 219 | 0.0 | 0.0 | 0.00 | 0.00 | 0.00 | 94 | 1013.8 |
| 20260901053234 | 18 | 220 | 0.0 | 0.0 | 0.00 | 0.00 | 0.00 | 94 | 1013.8 |
| 20260901052938 | 18 | 219 | 0.0 | 0.0 | 0.00 | 0.00 | 0.00 | 94 | 1013.7 |
| 20260901052833 | 18 | 220 | 0.0 | 0.0 | 0.00 | 0.00 | 0.00 | 94 | 1013.7 |
| 20260901052737 | 18 | 219 | 0.0 | 0.0 | 0.00 | 0.00 | 0.00 | 94 | 1013.7 |
| 20260901052540 | 18 | 220 | 0.0 | 0.0 | 0.00 | 0.00 | 0.00 | 94 | 1013.6 |
| 20260901052343 | 18 | 219 | 0.0 | 0.0 | 0.00 | 0.00 | 0.00 | 94 | 1013.7 |
| 20260901052331 | 18 | 220 | 0.0 | 0.0 | 0.00 | 0.00 | 0.00 | 94 | 1013.7 |
| 20260901052239 | 19 | 220 | 0.0 | 0.0 | 0.00 | 0.00 | 0.00 | 94 | 1013.7 |
| 20260901052039 | 19 | 219 | 0.0 | 0.0 | 0.00 | 0.00 | 0.00 | 94 | 1013.7 |
| 20260901051832 | 19 | 220 | 0.0 | 0.0 | 0.00 | 0.00 | 0.00 | 94 | 1013.7 |
| 20260901051734 | 19 | 219 | 0.0 | 0.0 | 0.00 | 0.00 | 0.00 | 94 | 1013.7 |
| 20260901051536 | 19 | 221 | 0.0 | 0.0 | 0.00 | 0.00 | 0.00 | 94 | 1013.6 |
| 20260901051332 | 19 | 219 | 0.0 | 0.0 | 0.00 | 0.00 | 0.00 | 94 | 1013.6 |
| 20260901051133 | 19 | 219 | 0.0 | 0.0 | 0.00 | 0.00 | 0.00 | 94 | 1013.6 |
| 20260901050935 | 19 | 220 | 0.0 | 0.0 | 0.00 | 0.00 | 0.00 | 94 | 1013.6 |
| 20260901050852 | 19 | 219 | 0.0 | 0.0 | 0.00 | 0.00 | 0.00 | 94 | 1013.6 |
| 20260901050838 | 19 | 219 | 0.0 | 0.0 | 0.00 | 0.00 | 0.00 | 94 | 1013.6 |
| 20260901050629 | 19 | 220 | 0.0 | 0.0 | 0.00 | 0.00 | 0.00 | 94 | 1013.5 |
| 20260901050328 | 19 | 220 | 0.0 | 0.0 | 0.00 | 0.00 | 0.00 | 94 | 1013.4 |
| 20260901050132 | 19 | 220 | 0.0 | 0.0 | 0.00 | 0.00 | 0.00 | 93 | 1013.4 |
| 20260901050121 | 19 | 220 | 0.0 | 0.0 | 0.00 | 0.00 | 0.00 | 93 | 1013.4 |
| 20260901050059 | 19 | 220 | 0.0 | 0.0 | 0.00 | 0.00 | 0.00 | 93 | 1013.4 |
| 20260901045729 | 19 | 220 | 0.0 | 0.0 | 0.00 | 0.00 | 0.00 | 93 | 1013.4 |
| 20260901045620 | 19 | 220 | 0.0 | 0.0 | 0.00 | 0.00 | 0.00 | 93 | 1013.2 |
| 20260901045606 | 19 | 219 | 0.0 | 0.0 | 0.00 | 0.00 | 0.00 | 93 | 1013.4 |
| 20260901045231 | 19 | 220 | 0.0 | 0.0 | 0.00 | 0.00 | 0.00 | 93 | 1013.2 |
| 20260901044931 | 19 | 220 | 0.0 | 0.0 | 0.00 | 0.00 | 0.00 | 93 | 1013.2 |
| 20260901044826 | 19 | 219 | 0.0 | 0.0 | 0.00 | 0.00 | 0.00 | 93 | 1013.2 |
| 20260901044730 | 19 | 219 | 0.0 | 0.0 | 0.00 | 0.00 | 0.00 | 93 | 1013.3 |
| 20260901044613 | 20 | 220 | 0.0 | 0.0 | 0.00 | 0.00 | 0.00 | 93 | 1013.1 |
| 20260901044603 | 20 | 219 | 0.0 | 0.0 | 0.00 | 0.00 | 0.00 | 93 | 1013.1 |
| 20260901044538 | 20 | 219 | 0.0 | 0.0 | 0.00 | 0.00 | 0.00 | 93 | 1013.0 |
| 20260901044130 | 20 | 220 | 0.0 | 0.0 | 0.00 | 0.00 | 0.00 | 93 | 1013.1 |
| 20260901043931 | 20 | 219 | 0.0 | 0.0 | 0.00 | 0.00 | 0.00 | 93 | 1013.0 |
| 20260901043808 | 20 | 219 | 0.0 | 0.0 | 0.00 | 0.00 | 0.00 | 93 | 1013.1 |
| 20260901043731 | 20 | 220 | 0.0 | 0.0 | 0.00 | 0.00 | 0.00 | 93 | 1013.1 |
| 20260901043653 | 20 | 219 | 0.0 | 0.0 | 0.00 | 0.00 | 0.00 | 93 | 1013.0 |
| 20260901043600 | 20 | 219 | 0.0 | 0.0 | 0.00 | 0.00 | 0.00 | 93 | 1013.1 |
| 20260901043531 | 20 | 219 | 0.0 | 0.0 | 0.00 | 0.00 | 0.00 | 93 | 1013.0 |
| 20260901043225 | 20 | 219 | 0.0 | 0.0 | 0.00 | 0.00 | 0.00 | 93 | 1013.0 |
| 20260901042923 | 20 | 220 | 0.0 | 0.0 | 0.00 | 0.00 | 0.00 | 93 | 1013.0 |
| 20260901042806 | 20 | 220 | 0.0 | 0.0 | 0.00 | 0.00 | 0.00 | 93 | 1013.0 |
| 20260901042725 | 20 | 220 | 0.0 | 0.0 | 0.00 | 0.00 | 0.00 | 93 | 1013.0 |
| 20260901042525 | 20 | 220 | 0.0 | 0.0 | 0.00 | 0.00 | 0.00 | 93 | 1013.0 |
| 20260901042310 | -17 | 220 | 0.0 | 0.0 | 0.00 | 0.00 | 0.00 | 1013.0 | |
| 20260901042037 | -17 | 0.0 | 0.0 | 0.00 | 0.00 | 0.00 | |||
| 20260901041802 | -17 | 0.0 | 0.0 | 0.00 | 0.00 | 0.00 | |||
| 20260901041735 | -17 | 0.0 | 0.0 | 0.00 | 0.00 | 0.00 | |||
| 20260901041644 | -17 | 0.0 | 0.0 | 0.00 | 0.00 | 0.00 | |||
| 20260901041524 | -17 | 0.0 | 0.0 | 0.00 | 0.00 | 0.00 | |||
| 20260901041107 | -17 | 0.0 | 0.0 | 0.00 | 0.00 | 0.00 | |||
| 20260901040906 | -17 | 0.0 | 0.0 | 0.00 | 0.00 | 0.00 | 1013.2 | ||
| 20260901040805 | -17 | 0.0 | 0.0 | 0.00 | 0.00 | 0.00 | 1013.2 | ||
| 20260901040707 | -17 | 0.0 | 0.0 | 0.00 | 0.00 | 0.00 | 1013.2 | ||
| 20260901040615 | 20 | 220 | 0.0 | 0.0 | 0.00 | 0.00 | 0.00 | 91 | 1013.2 |
| 20260901040449 | 20 | 220 | 0.0 | 0.0 | 0.00 | 0.00 | 0.00 | 91 | 1013.2 |
| 20260901040126 | 20 | 220 | 0.0 | 0.0 | 0.00 | 0.00 | 0.00 | 91 | 1013.2 |
| 20260901035827 | 20 | 220 | 0.0 | 0.0 | 0.00 | 0.00 | 0.00 | 91 | 1013.1 |
| 20260901035727 | 20 | 220 | 0.0 | 0.0 | 0.00 | 0.00 | 0.00 | 91 | 1013.1 |
| 20260901035627 | 20 | 220 | 0.0 | 0.0 | 0.00 | 0.00 | 0.00 | 91 | 1013.1 |
| 20260901035516 | 20 | 219 | 0.0 | 0.0 | 0.00 | 0.00 | 0.00 | 91 | 1013.2 |
| 20260901035506 | 20 | 217 | 0.0 | 0.0 | 0.00 | 0.00 | 0.00 | 91 | 1013.1 |
| 20260901035437 | 20 | 220 | 0.0 | 0.0 | 0.00 | 0.00 | 0.00 | 91 | 1013.1 |
| 20260901035130 | 20 | 220 | 0.0 | 0.0 | 0.00 | 0.00 | 0.00 | 91 | 1013.1 |
| 20260901034826 | 20 | 219 | 0.0 | 0.0 | 0.00 | 0.00 | 0.00 | 92 | 1013.3 |
| 20260901034728 | 20 | 219 | 0.0 | 0.0 | 0.00 | 0.00 | 0.00 | 92 | 1013.3 |
| 20260901034713 | 20 | 220 | 0.0 | 0.0 | 0.00 | 0.00 | 0.00 | 92 | 1013.3 |
| 20260901034515 | 20 | 220 | 0.0 | 0.0 | 0.00 | 0.00 | 0.00 | 91 | 1013.4 |
| 20260901034503 | 20 | 219 | 0.0 | 0.0 | 0.00 | 0.00 | 0.00 | 91 | 1013.3 |
| 20260901034433 | 20 | 220 | 0.0 | 0.0 | 0.00 | 0.00 | 0.00 | 91 | 1013.3 |
| 20260901034026 | 20 | 220 | 0.0 | 0.0 | 0.00 | 0.00 | 0.00 | 91 | 1013.4 |
| 20260901033825 | 20 | 219 | 0.0 | 0.0 | 0.00 | 0.00 | 0.00 | 91 | 1013.4 |
| 20260901033727 | 21 | 220 | 0.0 | 0.0 | 0.00 | 0.00 | 0.00 | 91 | 1013.3 |
| 20260901033714 | 20 | 220 | 0.0 | 0.0 | 0.00 | 0.00 | 0.00 | 91 | 1013.3 |
| 20260901033529 | 21 | 219 | 0.0 | 0.0 | 0.00 | 0.00 | 0.00 | 91 | 1013.3 |
| 20260901033509 | 21 | 219 | 0.0 | 0.0 | 0.00 | 0.00 | 0.00 | 91 | 1013.4 |
| 20260901033458 | 21 | 220 | 0.0 | 0.0 | 0.00 | 0.00 | 0.00 | 91 | 1013.3 |
| 20260901033029 | 21 | 219 | 0.0 | 0.0 | 0.00 | 0.00 | 0.00 | 91 | 1013.4 |
| 20260901032825 | 21 | 219 | 0.0 | 0.0 | 0.00 | 0.00 | 0.00 | 91 | 1013.4 |
| 20260901032711 | 21 | 219 | 0.0 | 0.0 | 0.00 | 0.00 | 0.00 | 90 | 1013.3 |
| 20260901032624 | 21 | 219 | 0.0 | 0.0 | 0.00 | 0.00 | 0.00 | 90 | 1013.3 |
| 20260901032509 | 21 | 220 | 0.0 | 0.0 | 0.00 | 0.00 | 0.00 | 90 | 1013.2 |
| 20260901032500 | 21 | 220 | 0.0 | 0.0 | 0.00 | 0.00 | 0.00 | 90 | 1013.2 |
| 20260901032433 | 21 | 220 | 0.0 | 0.0 | 0.00 | 0.00 | 0.00 | 90 | 1013.1 |
| 20260901032026 | 21 | 220 | 0.0 | 0.0 | 0.00 | 0.00 | 0.00 | 90 | 1013.2 |
| 20260901031825 | 21 | 220 | 0.0 | 0.0 | 0.00 | 0.00 | 0.00 | 90 | 1013.2 |
| 20260901031709 | 21 | 220 | 0.0 | 0.0 | 0.00 | 0.00 | 0.00 | 90 | 1013.1 |
| 20260901031628 | 21 | 219 | 0.0 | 0.0 | 0.00 | 0.00 | 0.00 | 90 | 1013.1 |
| 20260901031557 | 21 | 220 | 0.0 | 0.0 | 0.00 | 0.00 | 0.00 | 90 | 1013.1 |
| 20260901031507 | 21 | 219 | 0.0 | 0.0 | 0.00 | 0.00 | 0.00 | 90 | 1013.1 |
| 20260901031431 | 21 | 220 | 0.0 | 0.0 | 0.00 | 0.00 | 0.00 | 90 | 1013.1 |
| 20260901031130 | 21 | 220 | 0.0 | 0.0 | 0.00 | 0.00 | 0.00 | 90 | 1013.1 |
| 20260901030825 | 21 | 219 | 0.0 | 0.0 | 0.00 | 0.00 | 0.00 | 90 | 1013.1 |
| 20260901030710 | 21 | 220 | 0.0 | 0.0 | 0.00 | 0.00 | 0.00 | 90 | 1013.1 |
| 20260901030624 | 21 | 220 | 0.0 | 0.0 | 0.00 | 0.00 | 0.00 | 90 | 1013.1 |
| 20260901030508 | 21 | 219 | 0.0 | 0.0 | 0.00 | 0.00 | 0.00 | 90 | 1013.1 |
| 20260901030457 | 21 | 220 | 0.0 | 0.0 | 0.00 | 0.00 | 0.00 | 90 | 1013.1 |
| 20260901030427 | 21 | 220 | 0.0 | 0.0 | 0.00 | 0.00 | 0.00 | 90 | 1013.1 |
| 20260901030134 | 21 | 220 | 0.0 | 0.0 | 0.00 | 0.00 | 0.00 | 90 | 1013.0 |
| 20260901025825 | 21 | 220 | 0.0 | 0.0 | 0.00 | 0.00 | 0.00 | 89 | 1013.0 |
| 20260901025723 | 21 | 220 | 0.0 | 0.0 | 0.00 | 0.00 | 0.00 | 89 | 1013.0 |
| 20260901025705 | 21 | 219 | 0.0 | 0.0 | 0.00 | 0.00 | 0.00 | 89 | 1013.0 |
| 20260901025425 | 21 | 220 | 0.0 | 0.0 | 0.00 | 0.00 | 0.00 | 89 | 1013.0 |
| 20260901025226 | 21 | 220 | 0.0 | 0.0 | 0.00 | 0.00 | 0.00 | 89 | 1013.0 |
| 20260901025203 | 21 | 220 | 0.0 | 0.0 | 0.00 | 0.00 | 0.00 | 89 | 1013.1 |
| 20260901025030 | 21 | 220 | 0.0 | 0.0 | 0.00 | 0.00 | 0.00 | 89 | 1013.1 |
| 20260901024825 | 21 | 220 | 0.0 | 0.0 | 0.00 | 0.00 | 0.00 | 89 | 1013.0 |
| 20260901024723 | 21 | 221 | 0.0 | 0.0 | 0.00 | 0.00 | 0.00 | 89 | 1013.0 |
| 20260901024703 | 21 | 220 | 0.0 | 0.0 | 0.00 | 0.00 | 0.00 | 89 | 1013.0 |
| 20260901024427 | 21 | 219 | 0.0 | 0.0 | 0.00 | 0.00 | 0.00 | 89 | 1012.9 |
| 20260901024225 | 21 | 220 | 0.0 | 0.0 | 0.00 | 0.00 | 0.00 | 89 | 1012.9 |
| 20260901024203 | 21 | 220 | 0.0 | 0.0 | 0.00 | 0.00 | 0.00 | 89 | 1012.8 |
| 20260901024126 | 21 | 220 | 0.0 | 0.0 | 0.00 | 0.00 | 0.00 | 89 | 1013.0 |
| 20260901023826 | 21 | 219 | 0.0 | 0.0 | 0.00 | 0.00 | 0.00 | 88 | 1013.0 |
| 20260901023659 | 21 | 219 | 0.0 | 0.0 | 0.00 | 0.00 | 0.00 | 88 | 1013.0 |
| 20260901023625 | 21 | 219 | 0.0 | 0.0 | 0.00 | 0.00 | 0.00 | 88 | 1013.0 |
| 20260901023425 | 21 | 217 | 0.0 | 0.0 | 0.00 | 0.00 | 0.00 | 88 | 1013.0 |
| 20260901023225 | 21 | 220 | 0.0 | 0.0 | 0.00 | 0.00 | 0.00 | 88 | 1012.9 |
| 20260901023157 | 22 | 219 | 0.0 | 0.0 | 0.00 | 0.00 | 0.00 | 88 | 1013.0 |
| 20260901023127 | 22 | 220 | 0.0 | 0.0 | 0.00 | 0.00 | 0.00 | 88 | 1013.0 |
| 20260901022826 | 22 | 220 | 0.0 | 0.0 | 0.00 | 0.00 | 0.00 | 88 | 1013.0 |
| 20260901022726 | 22 | 221 | 0.0 | 0.0 | 0.00 | 0.00 | 0.00 | 88 | 1012.9 |
| 20260901022642 | 22 | 220 | 0.0 | 0.0 | 0.00 | 0.00 | 0.00 | 88 | 1012.9 |
| 20260901022425 | 22 | 220 | 0.0 | 0.0 | 0.00 | 0.00 | 0.00 | 87 | 1012.9 |
| 20260901022225 | 22 | 220 | 0.0 | 0.0 | 0.00 | 0.00 | 0.00 | 87 | 1012.8 |
| 20260901022139 | 22 | 220 | 0.0 | 0.0 | 0.00 | 0.00 | 0.00 | 87 | 1012.8 |
| 20260901022025 | 22 | 220 | 0.0 | 0.0 | 0.00 | 0.00 | 0.00 | 87 | 1012.8 |
| 20260901021824 | 22 | 220 | 0.0 | 0.0 | 0.00 | 0.00 | 0.00 | 87 | 1012.8 |
| 20260901021723 | 22 | 220 | 0.0 | 0.0 | 0.00 | 0.00 | 0.00 | 87 | 1012.9 |
| 20260901021639 | 22 | 219 | 0.0 | 0.0 | 0.00 | 0.00 | 0.00 | 87 | 1012.9 |
| 20260901021504 | 22 | 219 | 0.0 | 0.0 | 0.00 | 0.00 | 0.00 | 87 | 1012.8 |
| 20260901021434 | 22 | 220 | 0.0 | 0.0 | 0.00 | 0.00 | 0.00 | 87 | 1012.8 |
| 20260901021428 | 22 | 220 | 0.0 | 0.0 | 0.00 | 0.00 | 0.00 | 87 | 1012.7 |
| 20260901021025 | 22 | 219 | 0.0 | 0.0 | 0.00 | 0.00 | 0.00 | 86 | 1012.8 |
| 20260901020826 | 22 | 220 | 0.0 | 0.0 | 0.00 | 0.00 | 0.00 | 86 | 1012.9 |
| 20260901020634 | 22 | 220 | 0.0 | 0.0 | 0.00 | 0.00 | 0.00 | 86 | 1012.9 |
| 20260901020625 | 22 | 219 | 0.0 | 0.0 | 0.00 | 0.00 | 0.00 | 86 | 1012.9 |
| 20260901020438 | 22 | 220 | 0.0 | 0.0 | 0.00 | 0.00 | 0.00 | 85 | 1012.8 |
| 20260901020431 | 22 | 220 | 0.0 | 0.0 | 0.00 | 0.00 | 0.00 | 86 | 1012.9 |
| 20260901020401 | 22 | 219 | 0.0 | 0.0 | 0.00 | 0.00 | 0.00 | 85 | 1012.8 |
| 20260901020026 | 22 | 219 | 0.0 | 0.0 | 0.00 | 0.00 | 0.00 | 85 | 1012.7 |
| 20260901015826 | 22 | 219 | 0.0 | 0.0 | 0.00 | 0.00 | 0.00 | 85 | 1012.7 |
| 20260901015726 | 22 | 219 | 0.0 | 0.0 | 0.00 | 0.00 | 0.00 | 85 | 1012.7 |
| 20260901015647 | 22 | 219 | 0.0 | 0.0 | 0.00 | 0.00 | 0.00 | 85 | 1012.7 |
| 20260901015428 | 23 | 220 | 0.0 | 0.0 | 0.00 | 0.00 | 0.00 | 85 | 1012.6 |
| 20260901015419 | 22 | 219 | 0.0 | 0.0 | 0.00 | 0.00 | 0.00 | 85 | 1012.7 |
| 20260901015351 | 23 | 219 | 0.0 | 0.0 | 0.00 | 0.00 | 0.00 | 85 | 1012.6 |
| 20260901015026 | 23 | 219 | 0.0 | 0.0 | 0.00 | 0.00 | 0.00 | 85 | 1012.6 |
| 20260901014923 | 23 | 220 | 0.0 | 0.0 | 0.00 | 0.00 | 0.00 | 84 | 1012.6 |
| 20260901014644 | 23 | 219 | 0.0 | 0.0 | 0.00 | 0.00 | 0.00 | 84 | 1012.6 |
| 20260901014612 | 23 | 221 | 0.0 | 0.0 | 0.00 | 0.00 | 0.00 | 84 | 1012.6 |
| 20260901014407 | 23 | 219 | 0.0 | 0.0 | 0.00 | 0.00 | 0.00 | 83 | 1012.6 |
| 20260901014305 | 23 | 220 | 0.0 | 0.0 | 0.00 | 0.00 | 0.00 | 83 | 1012.6 |
| 20260901014134 | 23 | 220 | 0.0 | 0.0 | 0.00 | 0.00 | 0.00 | 83 | 1012.6 |
| 20260901014004 | 23 | 220 | 0.0 | 0.0 | 0.00 | 0.00 | 0.00 | 83 | 1012.6 |
| 20260901013748 | 23 | 219 | 0.0 | 0.0 | 0.00 | 0.00 | 0.00 | 83 | 1012.7 |
| 20260901013638 | 23 | 219 | 0.0 | 0.0 | 0.00 | 0.00 | 0.00 | 83 | 1012.6 |
| 20260901013549 | 23 | 219 | 0.0 | 0.0 | 0.00 | 0.00 | 0.00 | 83 | 1012.6 |
| 20260901013445 | 23 | 219 | 0.0 | 0.0 | 0.00 | 0.00 | 0.00 | 82 | 1012.5 |
| 20260901013140 | 23 | 220 | 0.0 | 0.0 | 0.00 | 0.00 | 0.00 | 82 | 1012.5 |
| 20260901013124 | 23 | 221 | 0.0 | 0.0 | 0.00 | 0.00 | 0.00 | 82 | 1012.5 |
| 20260901012937 | 24 | 220 | 0.0 | 0.0 | 0.00 | 0.00 | 0.00 | 82 | 1012.5 |
| 20260901012832 | 24 | 220 | 0.0 | 0.0 | 0.00 | 0.00 | 0.00 | 82 | 1012.4 |
| 20260901012627 | 24 | 219 | 0.0 | 0.0 | 0.00 | 0.00 | 0.00 | 82 | 1012.4 |
| 20260901012535 | 24 | 219 | 0.0 | 0.0 | 0.00 | 0.00 | 0.00 | 82 | 1012.4 |
| 20260901012332 | 24 | 220 | 0.0 | 0.0 | 0.00 | 0.00 | 0.00 | 82 | 1012.4 |
| 20260901012124 | 24 | 220 | 0.0 | 0.0 | 0.00 | 0.00 | 0.00 | 81 | 1012.4 |
| 20260901011929 | 24 | 220 | 0.0 | 0.0 | 0.00 | 0.00 | 0.00 | 81 | 1012.3 |
| 20260901011830 | 24 | 219 | 0.0 | 0.0 | 0.00 | 0.00 | 0.00 | 80 | 1012.3 |
| 20260901011623 | 25 | 219 | 0.0 | 0.0 | 0.00 | 0.00 | 0.00 | 80 | 1012.3 |
| 20260901011527 | 25 | 219 | 0.0 | 0.0 | 0.00 | 0.00 | 0.00 | 80 | 1012.2 |
| 20260901011325 | 25 | 220 | 0.0 | 0.0 | 0.00 | 0.00 | 0.00 | 80 | 1012.3 |
| 20260901011138 | 25 | 220 | 0.0 | 0.0 | 0.00 | 0.00 | 0.00 | 80 | 1012.2 |
| 20260901010925 | 25 | 220 | 0.0 | 0.0 | 0.00 | 0.00 | 0.00 | 80 | 1012.3 |
| 20260901010823 | 25 | 220 | 0.0 | 0.0 | 0.00 | 0.00 | 0.00 | 80 | 1012.3 |
| 20260901010624 | 25 | 219 | 0.0 | 0.0 | 0.00 | 0.00 | 0.00 | 79 | 1012.3 |
| 20260901010526 | 25 | 219 | 0.0 | 0.0 | 0.00 | 0.00 | 0.00 | 79 | 1012.3 |
| 20260901010426 | 25 | 219 | 0.0 | 0.0 | 0.00 | 0.00 | 0.00 | 77 | 1012.3 |
| 20260901010132 | 25 | 219 | 0.0 | 0.0 | 0.00 | 0.00 | 0.00 | 77 | 1012.3 |
| 20260901005923 | 25 | 219 | 0.0 | 0.0 | 0.00 | 0.00 | 0.00 | 77 | 1012.3 |
| 20260901005716 | 25 | 220 | 0.0 | 0.0 | 0.00 | 0.00 | 0.00 | 77 | 1012.3 |
| 20260901005610 | 26 | 217 | 0.0 | 0.0 | 0.00 | 0.00 | 0.00 | 77 | 1012.3 |
| 20260901005516 | 26 | 220 | 0.0 | 0.0 | 0.00 | 0.00 | 0.00 | 76 | 1012.3 |
| 20260901005411 | 26 | 220 | 0.0 | 0.0 | 0.00 | 0.00 | 0.00 | 77 | 1012.3 |
| 20260901005110 | 26 | 220 | 0.0 | 0.0 | 0.00 | 0.00 | 0.00 | 76 | 1012.3 |
| 20260901005014 | 26 | 220 | 0.0 | 0.0 | 0.00 | 0.00 | 0.00 | 76 | 1012.2 |
| 20260901004909 | 26 | 219 | 0.0 | 0.0 | 0.00 | 0.00 | 0.00 | 75 | 1012.2 |
| 20260901004844 | 26 | 220 | 0.0 | 0.0 | 0.00 | 0.00 | 0.00 | 75 | 1012.3 |
| 20260901004511 | 26 | 220 | 0.0 | 0.0 | 0.00 | 0.00 | 0.00 | 75 | 1012.3 |
| 20260901004312 | 26 | 221 | 0.0 | 0.0 | 0.00 | 0.00 | 0.00 | 75 | 1012.2 |
| 20260901004119 | 26 | 219 | 0.0 | 0.0 | 0.00 | 0.00 | 0.00 | 74 | 1012.2 |
| 20260901003942 | -17 | 0.0 | 0.0 | 0.00 | 0.00 | 0.00 | |||
| 20260901003933 | -17 | 0.0 | 0.0 | 0.00 | 0.00 | 0.00 | |||
| 20260901003607 | -17 | 0.0 | 0.0 | 0.00 | 0.00 | 0.00 | |||
| 20260901003406 | -17 | 0.0 | 0.0 | 0.00 | 0.00 | 0.00 | |||
| 20260901003203 | -17 | 0.0 | 0.0 | 0.00 | 0.00 | 0.00 | |||
| 20260901003135 | -17 | 0.0 | 0.0 | 0.00 | 0.00 | 0.00 | |||
| 20260901002951 | -17 | 0.0 | 0.0 | 0.00 | 0.00 | 0.00 | 1012.1 | ||
| 20260901002942 | -17 | 0.0 | 0.0 | 0.00 | 0.00 | 0.00 | |||
| 20260901002925 | -17 | 0.0 | 0.0 | 0.00 | 0.00 | 0.00 | 1012.1 | ||
| 20260901002307 | -17 | 0.0 | 0.0 | 0.00 | 0.00 | 0.00 | 1012.1 | ||
| 20260901002106 | 28 | 219 | 0.0 | 0.0 | 0.00 | 0.00 | 0.00 | 69 | 1012.1 |
| 20260901001834 | 28 | 219 | 0.0 | 0.0 | 0.00 | 0.00 | 0.00 | 69 | 1012.1 |
| 20260901001637 | 28 | 219 | 0.0 | 0.0 | 0.00 | 0.00 | 0.00 | 69 | 1012.1 |
| 20260901001435 | 28 | 219 | 0.0 | 0.0 | 0.00 | 0.00 | 0.00 | 69 | 1012.0 |
| 20260901001248 | 28 | 220 | 0.0 | 0.0 | 0.00 | 0.00 | 0.00 | 68 | 1012.0 |
| 20260901001234 | 28 | 219 | 0.0 | 0.0 | 0.00 | 0.00 | 0.00 | 69 | 1012.1 |
| 20260901001130 | 28 | 219 | 0.0 | 0.0 | 0.00 | 0.00 | 0.00 | 69 | 1012.0 |
| 20260901000833 | 28 | 227 | 0.0 | 0.0 | 0.00 | 0.00 | 0.00 | 68 | 1012.1 |
| 20260901000635 | -17 | 0.0 | 0.0 | 0.00 | 0.00 | 0.00 | 1012.1 | ||
| 20260901000405 | -17 | 0.0 | 0.0 | 0.00 | 0.00 | 0.00 | |||
| 20260901000314 | -17 | 0.0 | 0.0 | 0.00 | 0.00 | 0.00 | |||
| 20260901000303 | -17 | 0.0 | 0.0 | 0.00 | 0.00 | 0.00 | |||
| 20260831235935 | -17 | 0.0 | 0.0 | 0.00 | 0.00 | 0.00 | |||
| 20260831235739 | -17 | 0.0 | 0.0 | 0.00 | 0.00 | 0.00 | |||
| 20260831235735 | -17 | 0.0 | 0.0 | 0.00 | 0.00 | 0.00 | |||
| 20260831235535 | -17 | 0.0 | 0.0 | 0.00 | 0.00 | 0.00 | |||
| 20260831235335 | -17 | 0.0 | 0.0 | 0.00 | 0.00 | 0.00 | |||
| 20260831235245 | -17 | 0.0 | 0.0 | 0.00 | 0.00 | 0.00 | 1012.0 | ||
| 20260831235232 | -17 | 0.0 | 0.0 | 0.00 | 0.00 | 0.00 | 1012.0 | ||
| 20260831234907 | -17 | 0.0 | 0.0 | 0.00 | 0.00 | 0.00 | 1012.0 | ||
| 20260831234706 | 30 | 214 | 0.0 | 0.0 | 0.00 | 0.00 | 0.00 | 63 | 1012.0 |
| 20260831234508 | 30 | 214 | 0.0 | 0.0 | 0.00 | 0.00 | 0.00 | 63 | 1012.0 |
| 20260831234355 | 30 | 214 | 0.0 | 1.6 | 0.00 | 0.00 | 0.00 | 63 | 1012.0 |
| 20260831234326 | 30 | 214 | 0.0 | 4.8 | 0.00 | 0.00 | 0.00 | 63 | 1011.9 |
| 20260831234237 | 30 | 214 | 0.0 | 4.8 | 0.00 | 0.00 | 0.00 | 63 | 1011.9 |
| 20260831233856 | 30 | 214 | 0.0 | 6.4 | 0.00 | 0.00 | 0.00 | 63 | 1011.9 |
| 20260831233654 | 30 | 214 | 0.0 | 6.4 | 0.00 | 0.00 | 0.00 | 62 | 1011.9 |
| 20260831233510 | 30 | 217 | 0.0 | 6.4 | 0.00 | 0.00 | 0.00 | 62 | 1011.9 |
| 20260831233257 | 30 | 203 | 0.0 | 6.4 | 0.00 | 0.00 | 0.00 | 60 | 1011.9 |
| 20260831233056 | 30 | 203 | 0.0 | 6.4 | 0.00 | 0.00 | 0.00 | 60 | 1011.8 |
| 20260831233009 | 30 | 203 | 0.0 | 3.2 | 0.00 | 0.00 | 0.00 | 60 | 1011.9 |
| 20260831232924 | -17 | 238 | 0.0 | 0.0 | 0.00 | 0.00 | 0.00 | 1011.9 | |
| 20260831232856 | 30 | 237 | 0.0 | 3.2 | 0.00 | 0.00 | 0.00 | 60 | 1011.9 |
| 20260831232709 | -17 | 0.0 | 0.0 | 0.00 | 0.00 | 0.00 | 1011.9 | ||
| 20260831232135 | -17 | 0.0 | 0.0 | 0.00 | 0.00 | 0.00 | |||
| 20260831231934 | -17 | 0.0 | 0.0 | 0.00 | 0.00 | 0.00 | |||
| 20260831231902 | -17 | 0.0 | 0.0 | 0.00 | 0.00 | 0.00 | |||
| 20260831231734 | -17 | 0.0 | 0.0 | 0.00 | 0.00 | 0.00 | |||
| 20260831231605 | -17 | 0.0 | 0.0 | 0.00 | 0.00 | 0.00 | |||
| 20260831231600 | -17 | 0.0 | 0.0 | 0.00 | 0.00 | 0.00 | |||
| 20260831231106 | -17 | 0.0 | 0.0 | 0.00 | 0.00 | 0.00 | 1011.9 | ||
| 20260831230906 | -17 | 0.0 | 0.0 | 0.00 | 0.00 | 0.00 | 1011.9 | ||
| 20260831230830 | -17 | 0.0 | 0.0 | 0.00 | 0.00 | 0.00 | 1011.9 | ||
| 20260831230807 | -17 | 0.0 | 0.0 | 0.00 | 0.00 | 0.00 | 1011.9 | ||
| 20260831230610 | -17 | 0.0 | 0.0 | 0.00 | 0.00 | 0.00 | 1011.9 | ||
| 20260831230558 | -17 | 0.0 | 0.0 | 0.00 | 0.00 | 0.00 | 1011.9 | ||
| 20260831230234 | -17 | 0.0 | 0.0 | 0.00 | 0.00 | 0.00 | 1011.9 | ||
| 20260831230034 | -17 | 0.0 | 0.0 | 0.00 | 0.00 | 0.00 | 1011.9 | ||
| 20260831225937 | -17 | 0.0 | 0.0 | 0.00 | 0.00 | 0.00 | 1011.8 | ||
| 20260831225834 | -17 | 0.0 | 0.0 | 0.00 | 0.00 | 0.00 | 1011.8 | ||
| 20260831225432 | -17 | 0.0 | 0.0 | 0.00 | 0.00 | 0.00 | |||
| 20260831225231 | -17 | 0.0 | 0.0 | 0.00 | 0.00 | 0.00 | |||
| 20260831225130 | -17 | 0.0 | 0.0 | 0.00 | 0.00 | 0.00 | |||
| 20260831224831 | -17 | 0.0 | 0.0 | 0.00 | 0.00 | 0.00 | |||
| 20260831224731 | -17 | 0.0 | 0.0 | 0.00 | 0.00 | 0.00 | |||
| 20260831224604 | -17 | 0.0 | 0.0 | 0.00 | 0.00 | 0.00 | |||
| 20260831224446 | -17 | 0.0 | 0.0 | 0.00 | 0.00 | 0.00 | 1011.7 | ||
| 20260831224437 | -17 | 0.0 | 0.0 | 0.00 | 0.00 | 0.00 | 1011.7 | ||
| 20260831224005 | -17 | 220 | 0.0 | 0.0 | 0.00 | 0.00 | 0.00 | 1011.7 | |
| 20260831223807 | 30 | 220 | 0.0 | 1.6 | 0.00 | 0.00 | 0.00 | 60 | 1011.7 |
| 20260831223709 | 30 | 220 | 0.0 | 3.2 | 0.00 | 0.00 | 0.00 | 60 | 1011.7 |
| 20260831223639 | 30 | 220 | 0.0 | 3.2 | 0.00 | 0.00 | 0.00 | 60 | 1011.7 |
| 20260831223450 | 30 | 220 | 0.0 | 3.2 | 0.00 | 0.00 | 0.00 | 60 | 1011.7 |
| 20260831223416 | 30 | 220 | 0.0 | 3.2 | 0.00 | 0.00 | 0.00 | 60 | 1011.7 |
| 20260831223408 | 30 | 220 | 0.0 | 3.2 | 0.00 | 0.00 | 0.00 | 60 | 1011.7 |
| 20260831223031 | 30 | 221 | 0.0 | 3.2 | 0.00 | 0.00 | 0.00 | 60 | 1011.7 |
| 20260831222733 | 31 | 221 | 0.0 | 3.2 | 0.00 | 0.00 | 0.00 | 58 | 1011.7 |
| 20260831222645 | 31 | 221 | 0.0 | 3.2 | 0.00 | 0.00 | 0.00 | 57 | 1011.7 |
| 20260831222533 | 31 | 221 | 0.0 | 3.2 | 0.00 | 0.00 | 0.00 | 56 | 1011.6 |
| 20260831222431 | 31 | 221 | 0.0 | 3.2 | 0.00 | 0.00 | 0.00 | 58 | 1011.5 |
| 20260831222416 | 31 | 221 | 0.0 | 3.2 | 0.00 | 0.00 | 0.00 | 57 | 1011.5 |
| 20260831222132 | 31 | 221 | 0.0 | 3.2 | 0.00 | 0.00 | 0.00 | 58 | 1011.5 |
| 20260831221932 | 31 | 221 | 0.0 | 3.2 | 0.00 | 0.00 | 0.00 | 58 | 1011.6 |
| 20260831221837 | 31 | 221 | 0.0 | 1.6 | 0.00 | 0.00 | 0.00 | 62 | 1011.5 |
| 20260831221648 | 31 | 220 | 0.0 | 1.6 | 0.00 | 0.00 | 0.00 | 56 | 1011.5 |
| 20260831221638 | 31 | 223 | 0.0 | 1.6 | 0.00 | 0.00 | 0.00 | 59 | 1011.5 |
| 20260831221333 | 31 | 223 | 0.0 | 1.6 | 0.00 | 0.00 | 0.00 | 60 | 1011.5 |
| 20260831221135 | -17 | 0.0 | 0.0 | 0.00 | 0.00 | 0.00 | 1011.5 | ||
| 20260831220732 | -17 | 0.0 | 0.0 | 0.00 | 0.00 | 0.00 | |||
| 20260831220532 | -17 | 0.0 | 0.0 | 0.00 | 0.00 | 0.00 | |||
| 20260831220331 | -17 | 0.0 | 0.0 | 0.00 | 0.00 | 0.00 | |||
| 20260831220206 | -17 | 0.0 | 0.0 | 0.00 | 0.00 | 0.00 | |||
| 20260831220034 | -17 | 0.0 | 0.0 | 0.00 | 0.00 | 0.00 | |||
| 20260831220004 | -17 | 0.0 | 0.0 | 0.00 | 0.00 | 0.00 | |||
| 20260831215811 | -17 | 0.0 | 0.0 | 0.00 | 0.00 | 0.00 | 1011.5 | ||
| 20260831215802 | -17 | 0.0 | 0.0 | 0.00 | 0.00 | 0.00 | 1011.5 | ||
| 20260831215503 | -17 | 0.0 | 0.0 | 0.00 | 0.00 | 0.00 | 1011.5 | ||
| 20260831215231 | 32 | 221 | 0.0 | 3.2 | 0.00 | 0.00 | 0.00 | 53 | 1011.5 |
| 20260831215007 | 32 | 221 | 0.0 | 3.2 | 0.00 | 0.00 | 0.00 | 53 | 1011.5 |
| 20260831214831 | 32 | 221 | 0.0 | 3.2 | 0.00 | 0.00 | 0.00 | 53 | 1011.4 |
| 20260831214824 | 32 | 221 | 0.0 | 3.2 | 0.00 | 0.00 | 0.00 | 53 | 1011.4 |
| 20260831214731 | 32 | 221 | 0.0 | 3.2 | 0.00 | 0.00 | 0.00 | 53 | 1011.4 |
| 20260831214203 | 32 | 221 | 0.0 | 6.4 | 0.00 | 0.00 | 0.00 | 50 | 1011.2 |
| 20260831213951 | 32 | 221 | 0.0 | 6.4 | 0.00 | 0.00 | 0.00 | 53 | 1011.2 |
| 20260831213800 | 32 | 221 | 0.0 | 6.4 | 0.00 | 0.00 | 0.00 | 50 | 1011.2 |
| 20260831213746 | 32 | 223 | 0.0 | 6.4 | 0.00 | 0.00 | 0.00 | 51 | 1011.2 |
| 20260831213726 | 32 | 221 | 0.0 | 6.4 | 0.00 | 0.00 | 0.00 | 52 | 1011.2 |
| 20260831213355 | 32 | 223 | 0.0 | 6.4 | 0.00 | 0.00 | 0.00 | 51 | 1011.4 |
| 20260831213159 | -17 | 0.0 | 0.0 | 0.00 | 0.00 | 0.00 | 1011.1 | ||
| 20260831213154 | -17 | 221 | 0.0 | 0.0 | 0.00 | 0.00 | 0.00 | 1011.2 | |
| 20260831212955 | -17 | 0.0 | 0.0 | 0.00 | 0.00 | 0.00 | 1011.1 | ||
| 20260831212642 | -17 | 0.0 | 0.0 | 0.00 | 0.00 | 0.00 | |||
| 20260831212623 | -17 | 0.0 | 0.0 | 0.00 | 0.00 | 0.00 | |||
| 20260831212232 | -17 | 0.0 | 0.0 | 0.00 | 0.00 | 0.00 | |||
| 20260831212144 | -17 | 0.0 | 0.0 | 0.00 | 0.00 | 0.00 | |||
| 20260831212133 | -17 | 0.0 | 0.0 | 0.00 | 0.00 | 0.00 | |||
| 20260831211834 | -17 | 0.0 | 0.0 | 0.00 | 0.00 | 0.00 | |||
| 20260831211640 | -17 | 0.0 | 0.0 | 0.00 | 0.00 | 0.00 | 1011.0 | ||
| 20260831211635 | -17 | 0.0 | 0.0 | 0.00 | 0.00 | 0.00 | |||
| 20260831211402 | -17 | 0.0 | 0.0 | 0.00 | 0.00 | 0.00 | 1011.0 | ||
| 20260831211231 | -17 | 0.0 | 0.0 | 0.00 | 0.00 | 0.00 | 1011.0 | ||
| 20260831211207 | -17 | 0.0 | 0.0 | 0.00 | 0.00 | 0.00 | 1011.0 | ||
| 20260831211139 | -17 | 0.0 | 0.0 | 0.00 | 0.00 | 0.00 | 1011.0 | ||
| 20260831210806 | -17 | 0.0 | 0.0 | 0.00 | 0.00 | 0.00 | 1011.0 | ||
| 20260831210646 | -17 | 0.0 | 0.0 | 0.00 | 0.00 | 0.00 | 1011.0 | ||
| 20260831210335 | -17 | 0.0 | 0.0 | 0.00 | 0.00 | 0.00 | 1011.0 | ||
| 20260831210324 | -17 | 0.0 | 0.0 | 0.00 | 0.00 | 0.00 | |||
| 20260831205933 | -17 | 0.0 | 0.0 | 0.00 | 0.00 | 0.00 | |||
| 20260831205706 | -17 | 0.0 | 0.0 | 0.00 | 0.00 | 0.00 | |||
| 20260831205507 | -17 | 0.0 | 0.0 | 0.00 | 0.00 | 0.00 | |||
| 20260831205410 | -17 | 0.0 | 0.0 | 0.00 | 0.00 | 0.00 | |||
| 20260831205246 | -17 | 0.0 | 0.0 | 0.00 | 0.00 | 0.00 | |||
| 20260831204935 | -17 | 0.0 | 0.0 | 0.00 | 0.00 | 0.00 | 1011.0 | ||
| 20260831204633 | -17 | 0.0 | 0.0 | 0.00 | 0.00 | 0.00 | 1011.0 | ||
| 20260831204531 | -17 | 0.0 | 0.0 | 0.00 | 0.00 | 0.00 | 1011.0 | ||
| 20260831204432 | 31 | 220 | 0.0 | 1.6 | 0.00 | 0.00 | 0.00 | 58 | 1011.0 |
| 20260831204233 | 31 | 220 | 0.0 | 4.8 | 0.00 | 0.00 | 0.00 | 58 | 1011.0 |
| 20260831204012 | 31 | 220 | 0.0 | 6.4 | 0.00 | 0.00 | 0.00 | 58 | 1011.0 |
| 20260831203912 | 31 | 220 | 0.0 | 6.4 | 0.00 | 0.00 | 0.00 | 58 | 1011.1 |
| 20260831203610 | 31 | 220 | 0.0 | 6.4 | 0.00 | 0.00 | 0.00 | 58 | 1011.0 |
| 20260831203521 | 32 | 219 | 0.0 | 6.4 | 0.00 | 0.00 | 0.00 | 57 | 1011.0 |
| 20260831203505 | 31 | 220 | 0.0 | 6.4 | 0.00 | 0.00 | 0.00 | 58 | 1011.1 |
| 20260831203302 | 32 | 178 | 0.0 | 6.4 | 0.00 | 0.00 | 0.00 | 61 | 1011.1 |
| 20260831203248 | 32 | 220 | 0.0 | 6.4 | 0.00 | 0.00 | 0.00 | 59 | 1011.1 |
| 20260831202805 | 32 | 228 | 0.0 | 6.4 | 0.00 | 0.00 | 0.00 | 61 | 1011.1 |
| 20260831202604 | 32 | 228 | 0.0 | 6.4 | 0.00 | 0.00 | 0.00 | 61 | 1011.1 |
| 20260831202510 | 32 | 230 | 0.0 | 6.4 | 0.00 | 0.00 | 0.00 | 61 | 1011.1 |
| 20260831202406 | 32 | 230 | 0.0 | 6.4 | 0.00 | 0.00 | 0.00 | 63 | 1011.0 |
| 20260831202338 | -17 | 230 | 0.0 | 0.0 | 0.00 | 0.00 | 0.00 | 1011.1 | |
| 20260831202219 | -17 | 0.0 | 0.0 | 0.00 | 0.00 | 0.00 | 1011.1 | ||
| 20260831201735 | -17 | 0.0 | 0.0 | 0.00 | 0.00 | 0.00 | |||
| 20260831201639 | -17 | 0.0 | 0.0 | 0.00 | 0.00 | 0.00 | |||
| 20260831201402 | -17 | 0.0 | 0.0 | 0.00 | 0.00 | 0.00 | |||
| 20260831201335 | -17 | 0.0 | 0.0 | 0.00 | 0.00 | 0.00 | |||
| 20260831201144 | -17 | 0.0 | 0.0 | 0.00 | 0.00 | 0.00 | |||
| 20260831201119 | -17 | 0.0 | 0.0 | 0.00 | 0.00 | 0.00 | |||
| 20260831200809 | -17 | 0.0 | 0.0 | 0.00 | 0.00 | 0.00 | |||
| 20260831200507 | -17 | 0.0 | 0.0 | 0.00 | 0.00 | 0.00 | 1011.0 | ||
| 20260831200406 | -17 | 0.0 | 0.0 | 0.00 | 0.00 | 0.00 | 1011.0 | ||
| 20260831200307 | -17 | 0.0 | 0.0 | 0.00 | 0.00 | 0.00 | 1011.0 | ||
| 20260831200134 | 32 | 224 | 0.0 | 1.6 | 0.00 | 0.00 | 0.00 | 60 | 1011.0 |
| 20260831195837 | 32 | 224 | 0.0 | 4.8 | 0.00 | 0.00 | 0.00 | 60 | 1011.0 |
| 20260831195628 | 32 | 224 | 0.0 | 6.4 | 0.00 | 0.00 | 0.00 | 60 | 1011.1 |
| 20260831195611 | 32 | 224 | 0.0 | 6.4 | 0.00 | 0.00 | 0.00 | 60 | 1011.0 |
| 20260831195607 | 32 | 224 | 0.0 | 6.4 | 0.00 | 0.00 | 0.00 | 60 | 1011.0 |
| 20260831195552 | 32 | 224 | 0.0 | 6.4 | 0.00 | 0.00 | 0.00 | 60 | 1011.1 |
| 20260831195032 | 31 | 227 | 0.0 | 6.4 | 0.00 | 0.00 | 0.00 | 60 | 1011.0 |
| 20260831194828 | 32 | 227 | 0.0 | 9.7 | 0.00 | 0.00 | 0.00 | 60 | 1011.0 |
| 20260831194653 | 31 | 203 | 0.0 | 9.7 | 0.00 | 0.00 | 0.00 | 58 | 1011.0 |
| 20260831194627 | 32 | 203 | 0.0 | 9.7 | 0.00 | 0.00 | 0.00 | 60 | 1010.9 |
| 20260831194617 | 31 | 224 | 0.0 | 9.7 | 0.00 | 0.00 | 0.00 | 58 | 1011.0 |
| 20260831194227 | 31 | 224 | 0.0 | 9.7 | 0.00 | 0.00 | 0.00 | 58 | 1010.9 |
| 20260831194130 | 32 | 223 | 0.0 | 9.7 | 0.00 | 0.00 | 0.00 | 58 | 1010.9 |
| 20260831193828 | 32 | 207 | 0.0 | 4.8 | 0.00 | 0.00 | 0.00 | 59 | 1011.1 |
| 20260831193628 | 32 | 207 | 0.0 | 4.8 | 0.00 | 0.00 | 0.00 | 56 | 1011.0 |
| 20260831193619 | 32 | 180 | 0.0 | 4.8 | 0.00 | 0.00 | 0.00 | 62 | 1011.0 |
| 20260831193553 | 32 | 207 | 0.0 | 4.8 | 0.00 | 0.00 | 0.00 | 61 | 1010.9 |
| 20260831193227 | 32 | 188 | 0.0 | 3.2 | 0.00 | 0.00 | 0.00 | 61 | 1010.8 |
| 20260831193126 | 31 | 186 | 0.0 | 4.8 | 0.00 | 0.00 | 0.00 | 59 | 1010.9 |
| 20260831192828 | 31 | 186 | 0.0 | 4.8 | 0.00 | 0.00 | 0.00 | 59 | 1010.9 |
| 20260831192727 | 31 | 186 | 0.0 | 4.8 | 0.00 | 0.00 | 0.00 | 58 | 1010.9 |
| 20260831192617 | 31 | 188 | 0.0 | 4.8 | 0.00 | 0.00 | 0.00 | 58 | 1010.9 |
| 20260831192554 | 31 | 186 | 0.0 | 4.8 | 0.00 | 0.00 | 0.00 | 60 | 1010.9 |
| 20260831192228 | 31 | 188 | 0.0 | 4.8 | 0.00 | 0.00 | 0.00 | 58 | 1011.0 |
| 20260831192030 | 32 | 186 | 0.0 | 4.8 | 0.00 | 0.00 | 0.00 | 59 | 1010.9 |
| 20260831191830 | 32 | 186 | 0.0 | 4.8 | 0.00 | 0.00 | 0.00 | 59 | 1010.9 |
| 20260831191727 | 31 | 185 | 0.0 | 4.8 | 0.00 | 0.00 | 0.00 | 56 | 1010.9 |
| 20260831191427 | 31 | 186 | 0.0 | 6.4 | 0.00 | 0.00 | 0.00 | 57 | 1010.9 |
| 20260831191337 | 31 | 185 | 0.0 | 6.4 | 0.00 | 0.00 | 0.00 | 56 | 1011.0 |
| 20260831191327 | 31 | 185 | 0.0 | 6.4 | 0.00 | 0.00 | 0.00 | 56 | 1011.0 |
| 20260831191120 | 31 | 152 | 0.0 | 6.4 | 0.00 | 0.00 | 0.00 | 55 | 1010.9 |
| 20260831191110 | 31 | 185 | 0.0 | 6.4 | 0.00 | 0.00 | 0.00 | 55 | 1010.9 |
| 20260831191043 | 31 | 152 | 0.0 | 6.4 | 0.00 | 0.00 | 0.00 | 55 | 1010.9 |
| 20260831190732 | 31 | 152 | 0.0 | 6.4 | 0.00 | 0.00 | 0.00 | 55 | 1010.9 |
| 20260831190426 | 32 | 111 | 0.0 | 6.4 | 0.00 | 0.00 | 0.00 | 56 | 1010.9 |
| 20260831190337 | 32 | 183 | 0.0 | 3.2 | 0.00 | 0.00 | 0.00 | 59 | 1010.9 |
| 20260831190328 | 32 | 185 | 0.0 | 3.2 | 0.00 | 0.00 | 0.00 | 58 | 1010.9 |
| 20260831190134 | 32 | 147 | 0.0 | 3.2 | 0.00 | 0.00 | 0.00 | 58 | 1010.8 |
| 20260831190118 | 32 | 103 | 0.0 | 3.2 | 0.00 | 0.00 | 0.00 | 61 | 1011.0 |
| 20260831190040 | 32 | 147 | 0.0 | 3.2 | 0.00 | 0.00 | 0.00 | 58 | 1010.8 |
| 20260831185628 | 32 | 147 | 0.0 | 3.2 | 0.00 | 0.00 | 0.00 | 59 | 1010.9 |
| 20260831185429 | 32 | 145 | 0.0 | 6.4 | 0.00 | 0.00 | 0.00 | 64 | 1010.9 |
| 20260831185336 | 31 | 148 | 0.0 | 6.4 | 0.00 | 0.00 | 0.00 | 63 | 1010.9 |
| 20260831185329 | 32 | 145 | 0.0 | 6.4 | 0.00 | 0.00 | 0.00 | 64 | 1011.0 |
| 20260831185116 | 31 | 144 | 0.0 | 6.4 | 0.00 | 0.00 | 0.00 | 66 | 1010.8 |
| 20260831185105 | 31 | 147 | 0.0 | 6.4 | 0.00 | 0.00 | 0.00 | 66 | 1011.0 |
| 20260831184627 | 31 | 147 | 0.0 | 6.4 | 0.00 | 0.00 | 0.00 | 67 | 1011.0 |
| 20260831184427 | 31 | 147 | 0.0 | 6.4 | 0.00 | 0.00 | 0.00 | 68 | 1010.9 |
| 20260831184327 | 31 | 145 | 0.0 | 6.4 | 0.00 | 0.00 | 0.00 | 66 | 1010.9 |
| 20260831184226 | 31 | 145 | 0.0 | 6.4 | 0.00 | 0.00 | 0.00 | 64 | 1011.0 |
| 20260831184028 | 31 | 213 | 0.0 | 6.4 | 0.00 | 0.00 | 0.00 | 67 | 1010.9 |
| 20260831183934 | 31 | 219 | 0.0 | 6.4 | 0.00 | 0.00 | 0.00 | 70 | 1010.9 |
| 20260831183829 | 31 | 219 | 0.0 | 6.4 | 0.00 | 0.00 | 0.00 | 70 | 1010.9 |
| 20260831183654 | 31 | 210 | 0.0 | 6.4 | 0.00 | 0.00 | 0.00 | 64 | 1010.8 |
| 20260831183628 | 31 | 154 | 0.0 | 6.4 | 0.00 | 0.00 | 0.00 | 66 | 1010.9 |
| 20260831183615 | 31 | 210 | 0.0 | 6.4 | 0.00 | 0.00 | 0.00 | 67 | 1010.9 |
| 20260831183226 | 31 | 210 | 0.0 | 6.4 | 0.00 | 0.00 | 0.00 | 66 | 1010.9 |
| 20260831183029 | 31 | 0 | 0.0 | 4.8 | 0.00 | 0.00 | 0.00 | 71 | 1010.9 |
| 20260831182829 | 31 | 0 | 0.0 | 6.4 | 0.00 | 0.00 | 0.00 | 70 | 1010.9 |
| 20260831182732 | 31 | 0 | 0.0 | 6.4 | 0.00 | 0.00 | 0.00 | 66 | 1010.8 |
| 20260831182629 | 31 | 0 | 0.0 | 6.4 | 0.00 | 0.00 | 0.00 | 66 | 1010.8 |
| 20260831182618 | 31 | 0 | 0.0 | 6.4 | 0.00 | 0.00 | 0.00 | 66 | 1010.9 |
| 20260831182556 | 31 | 0 | 0.0 | 6.4 | 0.00 | 0.00 | 0.00 | 69 | 1010.9 |
| 20260831182028 | 31 | 0 | 0.0 | 6.4 | 0.00 | 0.00 | 0.00 | 66 | 1010.9 |
| 20260831181829 | 30 | 207 | 0.0 | 6.4 | 0.00 | 0.00 | 0.00 | 69 | 1010.8 |
| 20260831181634 | 30 | 207 | 0.0 | 4.8 | 0.00 | 0.00 | 0.00 | 67 | 1010.9 |
| 20260831181629 | 30 | 206 | 0.0 | 6.4 | 0.00 | 0.00 | 0.00 | 68 | 1010.8 |
| 20260831181620 | 30 | 188 | 0.0 | 4.8 | 0.00 | 0.00 | 0.00 | 68 | 1010.9 |
| 20260831181558 | 30 | 207 | 0.0 | 6.4 | 0.00 | 0.00 | 0.00 | 68 | 1010.8 |
| 20260831181031 | 30 | 186 | 0.0 | 4.8 | 0.00 | 0.00 | 0.00 | 67 | 1010.9 |
| 20260831180935 | 30 | 186 | 0.0 | 4.8 | 0.00 | 0.00 | 0.00 | 71 | 1010.8 |
| 20260831180828 | 30 | 186 | 0.0 | 4.8 | 0.00 | 0.00 | 0.00 | 71 | 1010.8 |
| 20260831180627 | 30 | 186 | 0.0 | 4.8 | 0.00 | 0.00 | 0.00 | 71 | 1010.8 |
| 20260831180428 | 30 | 238 | 0.0 | 3.2 | 0.00 | 0.00 | 0.00 | 73 | 1010.8 |
| 20260831180328 | 30 | 238 | 0.0 | 3.2 | 0.00 | 0.00 | 0.00 | 73 | 1010.9 |
| 20260831180228 | 30 | 238 | 0.0 | 3.2 | 0.00 | 0.00 | 0.00 | 73 | 1011.0 |
| 20260831180029 | -17 | 237 | 0.0 | 0.0 | 0.00 | 0.00 | 0.00 | 1011.0 | |
| 20260831175934 | -17 | 0.0 | 0.0 | 0.00 | 0.00 | 0.00 | 1011.0 | ||
| 20260831175828 | -17 | 0.0 | 0.0 | 0.00 | 0.00 | 0.00 | 1011.0 | ||
| 20260831175536 | -17 | 0.0 | 0.0 | 0.00 | 0.00 | 0.00 | |||
| 20260831175438 | -17 | 0.0 | 0.0 | 0.00 | 0.00 | 0.00 | |||
| 20260831175335 | -17 | 0.0 | 0.0 | 0.00 | 0.00 | 0.00 | |||
| 20260831175107 | -17 | 0.0 | 0.0 | 0.00 | 0.00 | 0.00 | |||
| 20260831175008 | -17 | 0.0 | 0.0 | 0.00 | 0.00 | 0.00 | |||
| 20260831174805 | -17 | 0.0 | 0.0 | 0.00 | 0.00 | 0.00 | |||
| 20260831174707 | -17 | 0.0 | 0.0 | 0.00 | 0.00 | 0.00 | |||
| 20260831174606 | -17 | 0.0 | 0.0 | 0.00 | 0.00 | 0.00 | |||
| 20260831174303 | -17 | 0.0 | 0.0 | 0.00 | 0.00 | 0.00 | 1011.2 | ||
| 20260831174235 | -17 | 0.0 | 0.0 | 0.00 | 0.00 | 0.00 | 1011.2 | ||
| 20260831174035 | -17 | 0.0 | 0.0 | 0.00 | 0.00 | 0.00 | 1011.2 | ||
| 20260831173837 | 29 | 203 | 0.0 | 3.2 | 0.00 | 0.00 | 0.00 | 79 | 1011.2 |
| 20260831173802 | 29 | 203 | 0.0 | 3.2 | 0.00 | 0.00 | 0.00 | 79 | 1011.2 |
| 20260831173635 | 29 | 203 | 0.0 | 3.2 | 0.00 | 0.00 | 0.00 | 79 | 1011.2 |
| 20260831173507 | 29 | 203 | 0.0 | 6.4 | 0.00 | 0.00 | 0.00 | 79 | 1011.1 |
| 20260831173210 | 29 | 203 | 0.0 | 6.4 | 0.00 | 0.00 | 0.00 | 79 | 1011.1 |
| 20260831173110 | 29 | 203 | 0.0 | 6.4 | 0.00 | 0.00 | 0.00 | 79 | 1011.2 |
| 20260831172810 | 29 | 203 | 0.0 | 6.4 | 0.00 | 0.00 | 0.00 | 79 | 1011.2 |
| 20260831172729 | 29 | 220 | 0.0 | 6.4 | 0.00 | 0.00 | 0.00 | 80 | 1011.4 |
| 20260831172608 | 29 | 219 | 0.0 | 6.4 | 0.00 | 0.00 | 0.00 | 79 | 1011.4 |
| 20260831172410 | 29 | 231 | 0.0 | 6.4 | 0.00 | 0.00 | 0.00 | 78 | 1011.4 |
| 20260831172211 | 29 | 162 | 0.0 | 4.8 | 0.00 | 0.00 | 0.00 | 78 | 1011.4 |
| 20260831172107 | 29 | 155 | 0.0 | 4.8 | 0.00 | 0.00 | 0.00 | 80 | 1011.2 |
| 20260831171813 | 29 | 157 | 0.0 | 4.8 | 0.00 | 0.00 | 0.00 | 80 | 1011.4 |
| 20260831171716 | 29 | 250 | 0.0 | 6.4 | 0.00 | 0.00 | 0.00 | 80 | 1011.2 |
| 20260831171712 | 29 | 252 | 0.0 | 6.4 | 0.00 | 0.00 | 0.00 | 79 | 1011.4 |
| 20260831171409 | 28 | 251 | 0.0 | 6.4 | 0.00 | 0.00 | 0.00 | 78 | 1011.2 |
| 20260831171210 | 29 | 262 | 0.0 | 6.4 | 0.00 | 0.00 | 0.00 | 80 | 1011.2 |
| 20260831171014 | 29 | 264 | 0.0 | 8.0 | 0.00 | 0.00 | 0.00 | 81 | 1011.4 |
| 20260831171010 | 29 | 262 | 0.0 | 8.0 | 0.00 | 0.00 | 0.00 | 80 | 1011.2 |
| 20260831170939 | 28 | 265 | 0.0 | 8.0 | 0.00 | 0.00 | 0.00 | 79 | 1011.4 |
| 20260831170610 | 29 | 264 | 0.0 | 8.0 | 0.00 | 0.00 | 0.00 | 80 | 1011.4 |
| 20260831170411 | 29 | 179 | 0.0 | 8.0 | 0.00 | 0.00 | 0.00 | 81 | 1011.2 |
| 20260831170213 | 29 | 179 | 0.0 | 8.0 | 0.00 | 0.00 | 0.00 | 79 | 1011.2 |
| 20260831170019 | 29 | 165 | 0.0 | 3.2 | 0.00 | 0.00 | 0.00 | 79 | 1011.4 |
| 20260831170014 | 29 | 171 | 0.0 | 6.4 | 0.00 | 0.00 | 0.00 | 80 | 1011.4 |
| 20260831170006 | 29 | 166 | 0.0 | 3.2 | 0.00 | 0.00 | 0.00 | 81 | 1011.4 |
| 20260831165937 | 29 | 165 | 0.0 | 3.2 | 0.00 | 0.00 | 0.00 | 80 | 1011.4 |
| 20260831165512 | 29 | 166 | 0.0 | 3.2 | 0.00 | 0.00 | 0.00 | 81 | 1011.2 |
| 20260831165214 | 29 | 166 | 0.0 | 3.2 | 0.00 | 0.00 | 0.00 | 81 | 1011.2 |
| 20260831165011 | 28 | 164 | 0.0 | 4.8 | 0.00 | 0.00 | 0.00 | 81 | 1011.2 |
| 20260831165004 | 28 | 165 | 0.0 | 4.8 | 0.00 | 0.00 | 0.00 | 81 | 1011.2 |
| 20260831164937 | 28 | 165 | 0.0 | 4.8 | 0.00 | 0.00 | 0.00 | 80 | 1011.1 |
| 20260831164610 | 28 | 124 | 0.0 | 4.8 | 0.00 | 0.00 | 0.00 | 80 | 1011.2 |
| 20260831164413 | 28 | 7 | 0.0 | 4.8 | 0.00 | 0.00 | 0.00 | 81 | 1011.2 |
| 20260831164317 | 28 | 148 | 0.0 | 4.8 | 0.00 | 0.00 | 0.00 | 81 | 1011.0 |
| 20260831164213 | 28 | 148 | 0.0 | 4.8 | 0.00 | 0.00 | 0.00 | 81 | 1011.0 |
| 20260831164114 | 28 | 188 | 0.0 | 4.8 | 0.00 | 0.00 | 0.00 | 81 | 1011.1 |
| 20260831163812 | 28 | 186 | 0.0 | 4.8 | 0.00 | 0.00 | 0.00 | 79 | 1010.9 |
| 20260831163713 | 28 | 186 | 0.0 | 4.8 | 0.00 | 0.00 | 0.00 | 79 | 1011.0 |
| 20260831163611 | 29 | 162 | 0.0 | 4.8 | 0.00 | 0.00 | 0.00 | 80 | 1011.0 |
| 20260831163455 | 28 | 161 | 0.0 | 4.8 | 0.00 | 0.00 | 0.00 | 80 | 1011.0 |
| 20260831163449 | 28 | 161 | 0.0 | 4.8 | 0.00 | 0.00 | 0.00 | 80 | 1011.0 |
| 20260831163423 | 28 | 161 | 0.0 | 4.8 | 0.00 | 0.00 | 0.00 | 80 | 1011.0 |
| 20260831163012 | 28 | 162 | 0.0 | 4.8 | 0.00 | 0.00 | 0.00 | 80 | 1010.9 |
| 20260831162811 | 28 | 224 | 0.0 | 9.7 | 0.00 | 0.00 | 0.00 | 80 | 1010.9 |
| 20260831162718 | 28 | 224 | 0.0 | 9.7 | 0.00 | 0.00 | 0.00 | 80 | 1011.0 |
| 20260831162714 | 28 | 224 | 0.0 | 9.7 | 0.00 | 0.00 | 0.00 | 80 | 1010.9 |
| 20260831162458 | 29 | 224 | 0.0 | 9.7 | 0.00 | 0.00 | 0.00 | 82 | 1010.9 |
| 20260831162449 | 28 | 226 | 0.0 | 9.7 | 0.00 | 0.00 | 0.00 | 80 | 1011.0 |
| 20260831162203 | 28 | 219 | 0.0 | 9.7 | 0.00 | 0.00 | 0.00 | 82 | 1010.9 |
| 20260831162000 | 28 | 217 | 0.0 | 9.7 | 0.00 | 0.00 | 0.00 | 82 | 1010.9 |
| 20260831161801 | 28 | 182 | 0.0 | 3.2 | 0.00 | 0.00 | 0.00 | 83 | 1010.8 |
| 20260831161713 | 28 | 180 | 0.0 | 4.8 | 0.00 | 0.00 | 0.00 | 83 | 1010.8 |